Latitude: N 50° 09' 49" Longitude: W 05° 11' 53" Elevation: 168m ASL

There are 3 visitors online

Adverts

<- Previous Day | Today | Next Day ->

All Data for 15 May 2019

Time
A - D
Temp
A - D
Dew Point
A - D
Humidity
A - D
Pressure
A - D
Wind
A - D
Wind Dir Gust
A - D
Rain Rate
A - D
Rain Total
00:00 10.9 3.2 59 1026.3 8.3 SW 15.2 0.0 0.0
00:01 10.9 3.2 59 1026.2 8.3 NNE 15.2 0.0 0.0
00:02 10.8 3.1 59 1026.2 3.8 N 15.2 0.0 0.0
00:03 10.8 3.1 59 1026.2 6.0 NW 15.2 0.0 0.0
00:04 10.8 3.1 59 1026.2 12.1 W 12.1 0.0 0.0
00:05 10.8 3.1 59 1026.2 6.9 NE 12.1 0.0 0.0
00:06 10.8 3.1 59 1026.2 7.6 SW 12.1 0.0 0.0
00:07 10.8 3.1 59 1026.2 5.4 N 12.1 0.0 0.0
00:08 10.8 3.1 59 1026.3 9.2 NE 12.1 0.0 0.0
00:09 10.8 3.1 59 1026.2 4.5 E 12.1 0.0 0.0
00:10 10.8 3.1 59 1026.1 4.5 E 12.1 0.0 0.0
00:11 10.8 3.1 59 1026.3 4.5 E 12.1 0.0 0.0
00:12 10.8 3.1 59 1026.1 4.5 E 12.1 0.0 0.0
00:13 10.8 3.1 59 1026.0 6.9 E 12.1 0.0 0.0
00:14 10.7 3.0 59 1026.2 12.1 E 12.1 0.0 0.0
00:15 10.8 2.9 58 1026.1 9.8 S 12.1 0.0 0.0
00:16 10.8 3.1 59 1026.0 6.0 NW 12.1 0.0 0.0
00:17 10.8 2.9 58 1026.1 6.9 W 13.0 0.0 0.0
00:18 10.8 3.1 59 1026.2 9.8 SE 13.0 0.0 0.0
00:19 10.8 2.9 58 1026.0 6.9 NE 13.0 0.0 0.0
00:20 10.8 3.1 59 1026.0 8.3 NW 13.0 0.0 0.0
00:21 10.8 2.9 58 1026.0 4.5 NW 13.0 0.0 0.0
00:22 10.8 3.1 59 1026.1 8.3 N 13.0 0.0 0.0
00:23 10.8 3.1 59 1026.1 6.0 SE 13.0 0.0 0.0
00:24 10.7 3.0 59 1026.0 6.9 N 13.0 0.0 0.0
00:25 10.7 3.0 59 1026.1 9.2 WSW 13.0 0.0 0.0
00:26 10.7 3.0 59 1026.0 9.8 ENE 13.0 0.0 0.0
00:27 10.7 3.0 59 1026.1 6.0 SE 13.0 0.0 0.0
00:28 10.7 3.0 59 1026.2 9.2 N 9.8 0.0 0.0
00:29 10.7 3.0 59 1026.0 8.3 N 9.8 0.0 0.0
00:30 10.7 3.0 59 1026.1 10.7 N 10.7 0.0 0.0
00:31 10.7 3.0 59 1026.0 9.8 N 10.7 0.0 0.0
00:32 10.6 2.9 59 1026.0 6.9 NW 10.7 0.0 0.0
00:33 10.6 2.9 59 1025.9 3.8 SW 10.7 0.0 0.0
00:34 10.7 3.0 59 1025.9 8.3 NW 10.7 0.0 0.0
00:35 10.7 3.0 59 1026.0 6.9 WNW 10.7 0.0 0.0
00:36 10.7 3.0 59 1025.9 7.6 S 10.7 0.0 0.0
00:37 10.7 3.3 60 1025.9 3.8 N 10.7 0.0 0.0
00:38 10.7 3.3 60 1026.0 7.6 NW 10.7 0.0 0.0
00:39 10.7 3.3 60 1026.0 7.6 NW 10.7 0.0 0.0
00:40 10.7 3.3 60 1025.9 6.9 NNE 10.7 0.0 0.0
00:41 10.7 3.3 60 1026.0 7.6 WNW 9.8 0.0 0.0
00:42 10.7 3.3 60 1026.0 7.6 SE 9.2 0.0 0.0
00:43 10.7 3.3 60 1025.9 4.5 N 9.2 0.0 0.0
00:44 10.6 3.2 60 1025.9 6.9 NE 9.2 0.0 0.0
00:45 10.7 3.3 60 1025.9 3.8 NW 9.2 0.0 0.0
00:46 10.6 3.2 60 1025.7 6.9 NW 9.2 0.0 0.0
00:47 10.6 3.2 60 1025.8 6.0 NW 9.2 0.0 0.0
00:48 10.6 3.4 61 1025.9 3.8 SE 7.6 0.0 0.0
00:49 10.6 3.4 61 1025.8 6.0 NE 7.6 0.0 0.0
00:50 10.6 3.4 61 1025.8 6.0 NNE 7.6 0.0 0.0
00:51 10.6 3.4 61 1025.8 5.4 N 7.6 0.0 0.0
00:52 10.6 3.4 61 1025.6 4.5 SW 6.9 0.0 0.0
00:53 10.6 3.4 61 1025.6 11.4 NW 11.4 0.0 0.0
00:54 10.6 3.6 62 1025.6 13.6 NNE 13.6 0.0 0.0
00:55 10.6 3.6 62 1025.5 5.4 E 13.6 0.0 0.0
00:56 10.6 3.6 62 1025.6 6.0 WNW 13.6 0.0 0.0
00:57 10.6 3.6 62 1025.6 7.6 NE 13.6 0.0 0.0
00:58 10.6 3.6 62 1025.6 9.2 NE 13.6 0.0 0.0
00:59 10.6 3.6 62 1025.7 4.5 N 13.6 0.0 0.0
01:00 10.6 3.6 62 1025.6 4.5 NE 13.6 0.0 0.0
01:01 10.6 3.9 63 1025.5 7.6 N 13.6 0.0 0.0
01:02 10.6 3.9 63 1025.6 5.4 SW 13.6 0.0 0.0
01:03 10.6 3.9 63 1025.5 6.0 NE 13.6 0.0 0.0
01:04 10.6 3.9 63 1025.5 6.0 NE 13.6 0.0 0.0
01:05 10.6 3.9 63 1025.6 5.4 W 9.2 0.0 0.0
01:06 10.6 3.9 63 1025.5 6.0 NW 9.2 0.0 0.0
01:07 10.6 3.9 63 1025.5 6.9 NE 9.2 0.0 0.0
01:08 10.6 3.9 63 1025.6 6.9 NE 9.2 0.0 0.0
01:09 10.6 4.1 64 1025.7 4.5 N 7.6 0.0 0.0
01:10 10.6 4.1 64 1025.5 4.5 N 7.6 0.0 0.0
01:11 10.6 4.1 64 1025.4 4.5 N 7.6 0.0 0.0
01:12 10.6 4.1 64 1025.3 4.5 N 6.9 0.0 0.0
01:13 10.6 4.1 64 1025.5 4.5 N 6.9 0.0 0.0
01:14 10.6 4.1 64 1025.4 4.5 N 6.9 0.0 0.0
01:15 10.6 4.1 64 1025.6 9.2 N 9.2 0.0 0.0
01:16 10.6 4.1 64 1025.5 5.4 NW 9.2 0.0 0.0
01:17 10.6 4.1 64 1025.4 6.0 E 9.2 0.0 0.0
01:19 10.5 4.2 65 1025.4 6.0 NW 9.2 0.0 0.0
01:20 10.6 4.3 65 1025.4 6.9 E 9.2 0.0 0.0
01:21 10.6 4.3 65 1025.4 6.9 NE 9.2 0.0 0.0
01:22 10.6 4.3 65 1025.3 6.0 NW 9.2 0.0 0.0
01:23 10.6 4.3 65 1025.4 5.4 NW 9.2 0.0 0.0
01:24 10.6 4.3 65 1025.4 12.1 NE 12.1 0.0 0.0
01:25 10.5 4.2 65 1025.4 6.0 NW 12.1 0.0 0.0
01:26 10.5 4.2 65 1025.3 6.9 SSE 12.1 0.0 0.0
01:27 10.5 4.2 65 1025.3 6.0 NW 12.1 0.0 0.0
01:28 10.5 4.4 66 1025.2 4.5 NW 12.1 0.0 0.0
01:29 10.5 4.4 66 1025.4 9.2 NW 12.1 0.0 0.0
01:30 10.5 4.4 66 1025.3 6.9 E 12.1 0.0 0.0
01:31 10.6 4.5 66 1025.3 9.2 N 12.1 0.0 0.0
01:32 10.6 4.5 66 1025.3 7.6 NE 12.1 0.0 0.0
01:33 10.5 4.4 66 1025.2 8.3 W 12.1 0.0 0.0
01:34 10.5 4.4 66 1025.1 6.9 E 12.1 0.0 0.0
01:35 10.6 4.5 66 1025.2 10.7 NW 12.1 0.0 0.0
01:36 10.6 4.5 66 1025.3 8.3 NW 10.7 0.0 0.0
01:37 10.5 4.4 66 1025.1 5.4 N 10.7 0.0 0.0
01:38 10.6 4.5 66 1025.2 6.0 W 10.7 0.0 0.0
01:40 10.5 4.4 66 1025.2 8.3 SW 10.7 0.0 0.0
01:41 10.5 4.6 67 1025.1 6.0 NW 10.7 0.0 0.0
01:42 10.5 4.4 66 1025.3 7.6 SE 10.7 0.0 0.0
01:43 10.5 4.6 67 1025.1 6.9 N 10.7 0.0 0.0
01:44 10.5 4.6 67 1025.3 6.9 NW 10.7 0.0 0.0
01:45 10.5 4.6 67 1025.2 7.6 WNW 10.7 0.0 0.0
01:46 10.5 4.6 67 1025.2 6.9 N 10.7 0.0 0.0
01:47 10.5 4.6 67 1025.2 5.4 NE 10.7 0.0 0.0
01:48 10.5 4.6 67 1025.1 12.1 N 12.1 0.0 0.0
01:49 10.5 4.6 67 1025.1 6.0 S 12.1 0.0 0.0
01:50 10.5 4.6 67 1025.1 6.0 S 12.1 0.0 0.0
01:51 10.5 4.6 67 1025.1 6.9 W 12.1 0.0 0.0
01:52 10.5 4.6 67 1025.1 8.3 E 12.1 0.0 0.0
01:53 10.5 4.6 67 1025.0 3.8 NW 12.1 0.0 0.0
01:54 10.5 4.6 67 1025.1 7.6 E 12.1 0.0 0.0
01:55 10.4 4.5 67 1025.1 5.4 NW 12.1 0.0 0.0
01:56 10.5 4.6 67 1025.2 10.7 NW 12.1 0.0 0.0
01:57 10.5 4.6 67 1025.0 6.9 N 12.1 0.0 0.0
01:58 10.4 4.5 67 1025.1 6.9 N 12.1 0.0 0.0
01:59 10.4 4.5 67 1025.1 7.6 N 12.1 0.0 0.0
02:00 10.5 4.6 67 1025.1 10.7 N 10.7 0.0 0.0
02:01 10.5 4.6 67 1025.0 6.0 NW 10.7 0.0 0.0
02:03 10.5 4.6 67 1025.1 7.6 SW 13.6 0.0 0.0
02:04 10.5 4.6 67 1025.0 12.1 N 13.6 0.0 0.0
02:05 10.4 4.5 67 1025.1 9.2 NW 13.6 0.0 0.0
02:06 10.5 4.6 67 1025.0 11.4 SE 13.6 0.0 0.0
02:07 10.5 4.6 67 1025.2 6.0 NE 13.6 0.0 0.0
02:08 10.5 4.6 67 1025.0 9.2 W 13.6 0.0 0.0
02:09 10.5 4.6 67 1025.1 9.2 W 13.6 0.0 0.0
02:10 10.5 4.6 67 1025.1 9.2 W 13.6 0.0 0.0
02:11 10.5 4.6 67 1025.1 9.2 W 13.6 0.0 0.0
02:12 10.5 4.6 67 1025.1 9.2 W 13.6 0.0 0.0
02:13 10.5 4.6 67 1025.0 9.2 W 12.1 0.0 0.0
02:14 10.5 4.6 67 1025.1 9.2 W 12.1 0.0 0.0
02:15 10.4 4.5 67 1025.1 5.4 SE 11.4 0.0 0.0
02:16 10.4 4.5 67 1025.0 7.6 SW 11.4 0.0 0.0
02:17 10.4 4.5 67 1025.1 9.8 NW 9.8 0.0 0.0
02:18 10.4 4.5 67 1025.0 9.8 N 9.8 0.0 0.0
02:19 10.4 4.5 67 1025.0 10.7 SE 10.7 0.0 0.0
02:20 10.4 4.5 67 1025.1 13.6 N 13.6 0.0 0.0
02:21 10.4 4.5 67 1025.1 10.7 ESE 13.6 0.0 0.0
02:22 10.4 4.5 67 1025.1 11.4 N 13.6 0.0 0.0
02:23 10.4 4.5 67 1025.0 8.3 WSW 13.6 0.0 0.0
02:24 10.4 4.5 67 1024.9 6.9 NW 13.6 0.0 0.0
02:25 10.4 4.5 67 1025.2 6.0 NE 13.6 0.0 0.0
02:26 10.4 4.5 67 1025.2 6.9 NE 13.6 0.0 0.0
02:27 10.4 4.5 67 1024.9 7.6 NE 13.6 0.0 0.0
02:28 10.3 4.4 67 1024.9 6.0 NW 13.6 0.0 0.0
02:29 10.3 4.4 67 1025.0 9.2 NNW 13.6 0.0 0.0
02:30 10.3 4.4 67 1024.9 6.9 NE 11.4 0.0 0.0
02:31 10.3 4.4 67 1024.9 5.4 NE 11.4 0.0 0.0
02:32 10.3 4.4 67 1025.0 9.2 SW 10.7 0.0 0.0
02:33 10.3 4.4 67 1025.0 9.2 SW 10.7 0.0 0.0
02:34 10.3 4.4 67 1024.9 14.5 SW 14.5 0.0 0.0
02:35 10.3 4.4 67 1025.0 6.9 E 14.5 0.0 0.0
02:36 10.3 4.4 67 1024.8 9.2 NW 14.5 0.0 0.0
02:37 10.3 4.4 67 1024.9 6.9 S 14.5 0.0 0.0
02:38 10.3 4.4 67 1024.9 6.9 N 14.5 0.0 0.0
02:39 10.3 4.4 67 1025.0 6.0 SW 14.5 0.0 0.0
02:40 10.3 4.4 67 1025.0 10.7 NW 14.5 0.0 0.0
02:41 10.3 4.4 67 1024.8 9.2 N 14.5 0.0 0.0
02:42 10.3 4.4 67 1024.8 12.1 SW 14.5 0.0 0.0
02:43 10.3 4.4 67 1024.9 8.3 NW 14.5 0.0 0.0
02:45 10.2 4.3 67 1024.9 4.5 NW 12.1 0.0 0.0
02:46 10.2 4.3 67 1024.8 6.0 NW 12.1 0.0 0.0
02:47 10.2 4.3 67 1024.8 9.8 N 12.1 0.0 0.0
02:48 10.2 4.3 67 1025.0 3.8 SW 12.1 0.0 0.0
02:49 10.2 4.3 67 1024.9 11.4 NW 12.1 0.0 0.0
02:50 10.2 4.3 67 1024.8 4.5 N 12.1 0.0 0.0
02:51 10.2 4.3 67 1024.9 7.6 N 12.1 0.0 0.0
02:52 10.2 4.3 67 1024.9 5.4 SW 14.5 0.0 0.0
02:53 10.2 4.3 67 1024.9 5.4 N 14.5 0.0 0.0
02:54 10.2 4.3 67 1025.0 6.9 W 14.5 0.0 0.0
02:55 10.2 4.3 67 1024.9 6.0 NW 14.5 0.0 0.0
02:56 10.1 4.3 67 1024.8 6.0 N 14.5 0.0 0.0
02:57 10.2 4.3 67 1025.0 5.4 N 14.5 0.0 0.0
02:58 10.1 4.3 67 1024.9 6.0 NW 14.5 0.0 0.0
02:59 10.1 4.3 67 1024.8 8.3 E 14.5 0.0 0.0
03:00 10.1 4.3 67 1025.0 10.7 N 14.5 0.0 0.0
03:01 10.1 4.3 67 1025.0 12.1 N 14.5 0.0 0.0
03:02 10.1 4.3 67 1024.9 6.0 N 14.5 0.0 0.0
03:03 10.1 4.0 66 1024.8 5.4 S 12.1 0.0 0.0
03:04 10.1 4.3 67 1024.9 11.4 NE 12.1 0.0 0.0
03:05 10.1 4.3 67 1024.8 6.0 NE 12.1 0.0 0.0
03:07 10.1 4.3 67 1024.7 6.9 NE 12.1 0.0 0.0
03:08 10.1 4.0 66 1024.8 6.9 N 12.1 0.0 0.0
03:09 10.1 4.0 66 1024.9 6.0 N 12.1 0.0 0.0
03:10 10.1 4.0 66 1024.8 6.0 N 12.1 0.0 0.0
03:11 10.1 4.0 66 1024.9 6.0 N 11.4 0.0 0.0
03:12 10.1 4.0 66 1024.8 6.0 N 11.4 0.0 0.0
03:13 10.1 4.0 66 1024.7 6.0 N 11.4 0.0 0.0
03:14 10.1 4.0 66 1024.8 6.0 NE 7.6 0.0 0.0
03:15 10.1 4.0 66 1024.8 6.0 S 7.6 0.0 0.0
03:16 10.1 4.0 66 1024.6 14.5 N 14.5 0.0 0.0
03:17 10.1 4.3 67 1024.9 7.6 N 14.5 0.0 0.0
03:18 10.1 4.3 67 1024.7 7.6 NE 14.5 0.0 0.0
03:19 10.1 4.3 67 1024.8 11.4 SW 14.5 0.0 0.0
03:20 10.1 4.3 67 1024.9 4.5 E 14.5 0.0 0.0
03:21 10.1 4.3 67 1024.7 7.6 SW 14.5 0.0 0.0
03:22 10.1 4.3 67 1024.8 8.3 S 14.5 0.0 0.0
03:23 10.0 4.2 67 1024.8 9.8 NE 14.5 0.0 0.0
03:24 10.0 4.2 67 1024.7 8.3 N 14.5 0.0 0.0
03:25 10.0 4.2 67 1024.8 15.2 NE 15.2 0.0 0.0
03:26 10.0 4.2 67 1024.6 10.7 NW 15.2 0.0 0.0
03:27 10.0 4.2 67 1024.8 8.3 NW 15.2 0.0 0.0
03:28 10.0 4.2 67 1024.7 10.7 NW 15.2 0.0 0.0
03:29 10.0 4.4 68 1024.7 3.8 N 15.2 0.0 0.0
03:31 10.0 4.4 68 1024.6 6.9 NE 15.2 0.0 0.0
03:32 10.0 4.4 68 1024.7 7.6 NE 15.2 0.0 0.0
03:33 10.0 4.4 68 1024.7 10.7 N 15.2 0.0 0.0
03:34 10.0 4.4 68 1024.6 9.8 N 15.2 0.0 0.0
03:35 10.0 4.4 68 1024.6 5.4 WNW 10.7 0.0 0.0
03:36 10.0 4.4 68 1024.7 9.8 N 10.7 0.0 0.0
03:37 10.0 4.4 68 1024.6 6.9 NW 10.7 0.0 0.0
03:38 10.0 4.4 68 1024.7 3.8 NW 10.7 0.0 0.0
03:39 10.0 4.4 68 1024.6 7.6 NW 10.7 0.0 0.0
03:40 10.0 4.4 68 1024.5 6.0 NE 10.7 0.0 0.0
03:41 9.9 4.3 68 1024.6 6.9 SE 10.7 0.0 0.0
03:42 9.9 4.3 68 1024.6 13.6 N 13.6 0.0 0.0
03:43 9.9 4.3 68 1024.5 5.4 NE 13.6 0.0 0.0
03:44 9.9 4.5 69 1024.5 6.9 WNW 13.6 0.0 0.0
03:45 9.9 4.5 69 1024.6 7.6 ENE 13.6 0.0 0.0
03:46 9.9 4.5 69 1024.7 6.9 NE 13.6 0.0 0.0
03:47 9.9 4.5 69 1024.6 9.8 S 13.6 0.0 0.0
03:48 9.9 4.5 69 1024.5 11.4 N 13.6 0.0 0.0
03:49 9.9 4.5 69 1024.6 5.4 NW 13.6 0.0 0.0
03:50 9.9 4.5 69 1024.6 8.3 S 13.6 0.0 0.0
03:52 9.9 4.5 69 1024.5 6.0 N 11.4 0.0 0.0
03:53 9.8 4.4 69 1024.5 6.9 N 11.4 0.0 0.0
03:54 9.8 4.4 69 1024.5 6.9 N 11.4 0.0 0.0
03:55 9.8 4.4 69 1024.6 3.8 NE 11.4 0.0 0.0
03:56 9.8 4.6 70 1024.5 3.8 N 11.4 0.0 0.0
03:57 9.8 4.6 70 1024.6 7.6 N 12.1 0.0 0.0
03:58 9.8 4.6 70 1024.5 7.6 NE 12.1 0.0 0.0
03:59 9.8 4.6 70 1024.6 9.8 NE 12.1 0.0 0.0
04:00 9.8 4.6 70 1024.6 10.7 E 12.1 0.0 0.0
04:01 9.8 4.6 70 1024.5 9.2 N 12.1 0.0 0.0
04:02 9.8 4.6 70 1024.5 9.8 N 12.1 0.0 0.0
04:03 9.8 4.6 70 1024.6 6.0 ENE 12.1 0.0 0.0
04:04 9.8 4.6 70 1024.5 6.0 N 12.1 0.0 0.0
04:05 9.8 4.6 70 1024.4 4.5 N 12.1 0.0 0.0
04:06 9.8 4.6 70 1024.5 5.4 E 12.1 0.0 0.0
04:07 9.8 4.8 71 1024.3 6.9 NE 12.1 0.0 0.0
04:08 9.8 4.8 71 1024.3 12.1 SE 12.1 0.0 0.0
04:09 9.7 4.7 71 1024.3 9.8 NW 12.1 0.0 0.0
04:10 9.7 4.7 71 1024.4 9.8 NW 12.1 0.0 0.0
04:11 9.7 4.7 71 1024.4 9.8 NW 12.1 0.0 0.0
04:13 9.7 4.7 71 1024.2 9.8 NW 12.1 0.0 0.0
04:14 9.7 4.7 71 1024.2 9.8 NW 12.1 0.0 0.0
04:15 9.8 4.8 71 1024.2 7.6 NE 12.1 0.0 0.0
04:16 9.7 4.7 71 1024.3 6.9 WNW 12.1 0.0 0.0
04:17 9.8 4.8 71 1024.4 5.4 NW 12.1 0.0 0.0
04:18 9.8 5.0 72 1024.3 11.4 N 11.4 0.0 0.0
04:19 9.8 5.0 72 1024.4 7.6 N 11.4 0.0 0.0
04:20 9.7 4.9 72 1024.2 7.6 NW 11.4 0.0 0.0
04:21 9.7 4.9 72 1024.4 6.0 NNE 11.4 0.0 0.0
04:22 9.7 4.9 72 1024.4 6.0 NNE 11.4 0.0 0.0
04:23 9.8 5.0 72 1024.2 8.3 NE 11.4 0.0 0.0
04:24 9.7 4.9 72 1024.3 6.0 E 11.4 0.0 0.0
04:25 9.8 5.0 72 1024.4 6.0 NW 11.4 0.0 0.0
04:26 9.8 5.0 72 1024.2 4.5 NE 11.4 0.0 0.0
04:27 9.8 5.0 72 1024.3 9.2 N 11.4 0.0 0.0
04:28 9.8 5.0 72 1024.2 4.5 NW 11.4 0.0 0.0
04:29 9.8 5.0 72 1024.3 10.7 N 10.7 0.0 0.0
04:30 9.7 4.9 72 1024.3 5.4 NE 10.7 0.0 0.0
04:31 9.7 4.9 72 1024.4 5.4 NW 10.7 0.0 0.0
04:32 9.7 5.1 73 1024.2 3.8 N 10.7 0.0 0.0
04:34 9.7 5.1 73 1024.3 5.4 NNE 10.7 0.0 0.0
04:35 9.7 5.1 73 1024.4 6.9 N 10.7 0.0 0.0
04:36 9.7 5.1 73 1024.5 3.8 NW 10.7 0.0 0.0
04:37 9.7 5.1 73 1024.3 9.2 NW 10.7 0.0 0.0
04:38 9.7 5.1 73 1024.5 3.8 E 10.7 0.0 0.0
04:39 9.7 5.1 73 1024.3 5.4 NE 9.2 0.0 0.0
04:40 9.7 5.1 73 1024.4 4.5 NE 9.2 0.0 0.0
04:41 9.7 5.1 73 1024.4 6.0 NW 9.2 0.0 0.0
04:42 9.7 5.1 73 1024.4 6.0 NW 9.2 0.0 0.0
04:43 9.7 5.3 74 1024.4 11.4 W 11.4 0.0 0.0
04:44 9.7 5.3 74 1024.4 3.8 NW 11.4 0.0 0.0
04:45 9.7 5.3 74 1024.4 7.6 N 11.4 0.0 0.0
04:46 9.7 5.3 74 1024.3 3.8 NW 11.4 0.0 0.0
04:47 9.7 5.3 74 1024.4 8.3 N 11.4 0.0 0.0
04:48 9.7 5.3 74 1024.4 6.9 E 11.4 0.0 0.0
04:49 9.6 5.2 74 1024.4 6.9 NE 11.4 0.0 0.0
04:50 9.6 5.2 74 1024.4 6.0 SE 11.4 0.0 0.0
04:51 9.7 5.3 74 1024.5 6.0 S 11.4 0.0 0.0
04:53 9.7 5.3 74 1024.5 5.4 NW 8.3 0.0 0.0
04:54 9.7 5.5 75 1024.5 5.4 SW 8.3 0.0 0.0
04:55 9.7 5.5 75 1024.5 4.5 W 8.3 0.0 0.0
04:56 9.7 5.5 75 1024.5 5.4 NW 8.3 0.0 0.0
04:57 9.7 5.5 75 1024.5 3.8 NE 6.9 0.0 0.0
04:58 9.7 5.5 75 1024.4 3.8 SE 6.9 0.0 0.0
04:59 9.7 5.5 75 1024.3 7.6 N 7.6 0.0 0.0
05:00 9.7 5.5 75 1024.4 5.4 N 7.6 0.0 0.0
05:01 9.7 5.5 75 1024.4 6.0 N 7.6 0.0 0.0
05:02 9.7 5.5 75 1024.4 3.8 NW 7.6 0.0 0.0
05:03 9.7 5.5 75 1024.4 5.4 NW 7.6 0.0 0.0
05:04 9.7 5.5 75 1024.4 8.3 S 8.3 0.0 0.0
05:05 9.7 5.7 76 1024.5 6.0 S 8.3 0.0 0.0
05:06 9.7 5.7 76 1024.3 6.9 NW 8.3 0.0 0.0
05:07 9.7 5.7 76 1024.5 5.4 SW 8.3 0.0 0.0
05:08 9.7 5.7 76 1024.3 6.0 SW 8.3 0.0 0.0
05:09 9.7 5.7 76 1024.6 5.4 SSW 8.3 0.0 0.0
05:10 9.7 5.7 76 1024.2 5.4 SSW 8.3 0.0 0.0
05:11 9.7 5.7 76 1024.6 5.4 SSW 8.3 0.0 0.0
05:13 9.7 5.7 76 1024.4 5.4 SSW 8.3 0.0 0.0
05:14 9.7 5.7 76 1024.5 5.4 SSW 6.9 0.0 0.0
05:15 9.8 5.8 76 1024.5 7.6 SE 7.6 0.0 0.0
05:16 9.8 5.8 76 1024.5 5.4 NW 9.8 0.0 0.0
05:17 9.7 5.9 77 1024.5 3.8 SE 9.8 0.0 0.0
05:18 9.8 6.0 77 1024.6 3.8 NW 9.8 0.0 0.0
05:19 9.8 6.0 77 1024.4 8.3 NE 9.8 0.0 0.0
05:20 9.8 6.0 77 1024.5 4.5 N 9.8 0.0 0.0
05:21 9.8 6.0 77 1024.5 4.5 N 9.8 0.0 0.0
05:22 9.8 6.0 77 1024.6 5.4 NE 9.8 0.0 0.0
05:23 9.8 6.0 77 1024.5 12.1 NE 12.1 0.0 0.0
05:24 9.8 6.0 77 1024.4 3.1 NW 12.1 0.0 0.0
05:25 9.8 6.0 77 1024.5 1.6 N 12.1 0.0 0.0
05:26 9.8 6.0 77 1024.5 3.8 NNE 12.1 0.0 0.0
05:27 9.8 6.0 77 1024.6 5.4 W 12.1 0.0 0.0
05:28 9.8 6.0 77 1024.5 4.5 E 12.1 0.0 0.0
05:29 9.8 6.1 78 1024.5 3.8 N 12.1 0.0 0.0
05:30 9.8 6.1 78 1024.5 2.2 S 12.1 0.0 0.0
05:32 9.9 6.2 78 1024.5 6.0 NE 12.1 0.0 0.0
05:33 9.8 6.1 78 1024.5 4.5 NE 6.9 0.0 0.0
05:34 9.9 6.2 78 1024.5 5.4 SE 6.9 0.0 0.0
05:35 9.9 6.2 78 1024.5 5.4 SE 6.9 0.0 0.0
05:36 9.9 6.2 78 1024.5 5.4 NW 6.9 0.0 0.0
05:37 9.9 6.2 78 1024.5 5.4 NW 6.9 0.0 0.0
05:38 9.9 6.2 78 1024.4 4.5 E 6.9 0.0 0.0
05:39 9.9 6.4 79 1024.5 5.4 NE 6.9 0.0 0.0
05:40 9.9 6.4 79 1024.4 6.9 N 6.9 0.0 0.0
05:41 9.9 6.4 79 1024.4 3.8 S 6.9 0.0 0.0
05:42 9.9 6.4 79 1024.4 3.1 NW 6.9 0.0 0.0
05:43 9.9 6.4 79 1024.4 9.2 E 9.2 0.0 0.0
05:44 9.9 6.4 79 1024.5 3.1 E 9.2 0.0 0.0
05:45 9.9 6.4 79 1024.5 6.0 W 9.2 0.0 0.0
05:46 9.9 6.4 79 1024.6 6.0 W 9.2 0.0 0.0
05:47 9.9 6.4 79 1024.5 6.9 W 9.2 0.0 0.0
05:49 10.0 6.5 79 1024.5 6.0 NW 9.2 0.0 0.0
05:50 10.0 6.5 79 1024.6 5.4 NW 9.2 0.0 0.0
05:51 10.0 6.5 79 1024.5 7.6 E 9.2 0.0 0.0
05:52 10.0 6.7 80 1024.5 4.5 N 9.2 0.0 0.0
05:53 10.0 6.7 80 1024.6 6.0 NW 7.6 0.0 0.0
05:54 10.0 6.7 80 1024.5 11.4 NW 11.4 0.0 0.0
05:55 10.0 6.7 80 1024.5 5.4 NW 11.4 0.0 0.0
05:56 10.0 6.7 80 1024.5 6.0 N 11.4 0.0 0.0
05:57 10.0 6.7 80 1024.6 5.4 N 11.4 0.0 0.0
05:58 10.0 6.7 80 1024.4 7.6 N 11.4 0.0 0.0
05:59 10.0 6.7 80 1024.6 4.5 E 11.4 0.0 0.0
06:00 10.0 6.7 80 1024.5 3.8 N 11.4 0.0 0.0
06:01 10.0 6.7 80 1024.6 2.2 N 11.4 0.0 0.0
06:02 10.0 6.7 80 1024.4 7.6 NW 11.4 0.0 0.0
06:03 10.0 6.7 80 1024.4 5.4 NE 11.4 0.0 0.0
06:04 10.0 6.7 80 1024.6 6.0 SE 11.4 0.0 0.0
06:06 10.0 6.7 80 1024.5 7.6 NW 7.6 0.0 0.0
06:07 10.0 6.7 80 1024.6 4.5 SW 7.6 0.0 0.0
06:08 10.0 6.7 80 1024.5 5.4 NE 7.6 0.0 0.0
06:09 10.0 6.7 80 1024.6 3.8 NW 7.6 0.0 0.0
06:10 10.0 6.7 80 1024.4 3.8 NW 7.6 0.0 0.0
06:11 10.0 6.7 80 1024.6 3.8 SSE 7.6 0.0 0.0
06:12 9.9 6.8 81 1024.4 6.9 NE 7.6 0.0 0.0
06:13 10.0 6.9 81 1024.4 5.4 NE 7.6 0.0 0.0
06:14 10.0 6.9 81 1024.3 3.8 N 7.6 0.0 0.0
06:15 9.9 6.8 81 1024.5 5.4 NW 7.6 0.0 0.0
06:16 9.9 6.8 81 1024.4 3.8 SW 7.6 0.0 0.0
06:17 9.9 6.8 81 1024.4 2.2 NE 6.9 0.0 0.0
06:18 9.9 6.8 81 1024.5 4.5 W 6.9 0.0 0.0
06:19 9.9 6.8 81 1024.5 6.9 SW 6.9 0.0 0.0
06:20 9.9 6.8 81 1024.5 2.2 N 6.9 0.0 0.0
06:21 10.0 6.9 81 1024.7 2.2 NW 6.9 0.0 0.0
06:23 10.0 6.9 81 1024.6 7.6 NW 7.6 0.0 0.0
06:24 10.0 6.9 81 1024.6 5.4 NE 7.6 0.0 0.0
06:25 10.0 6.9 81 1024.6 5.4 W 7.6 0.0 0.0
06:26 10.0 6.9 81 1024.7 7.6 S 7.6 0.0 0.0
06:27 10.0 6.9 81 1024.8 5.4 N 7.6 0.0 0.0
06:28 10.0 6.9 81 1024.7 8.3 N 8.3 0.0 0.0
06:29 10.0 6.9 81 1024.6 3.1 NW 8.3 0.0 0.0
06:30 10.0 6.9 81 1024.5 5.4 NW 8.3 0.0 0.0
06:31 10.0 6.9 81 1024.6 9.2 NW 9.2 0.0 0.0
06:32 10.0 7.1 82 1024.7 3.8 NE 9.2 0.0 0.0
06:33 10.0 7.1 82 1024.7 3.1 NE 9.2 0.0 0.0
06:34 10.0 7.1 82 1024.7 3.1 NNE 9.2 0.0 0.0
06:35 10.0 7.1 82 1024.7 3.1 WSW 9.2 0.0 0.0
06:36 10.1 7.2 82 1024.8 3.8 NW 9.2 0.0 0.0
06:38 10.0 7.1 82 1024.7 8.3 WNW 9.2 0.0 0.0
06:39 10.1 7.2 82 1024.7 4.5 NW 9.2 0.0 0.0
06:40 10.1 7.2 82 1024.7 3.8 NW 9.2 0.0 0.0
06:41 10.1 7.2 82 1024.7 4.5 E 8.3 0.0 0.0
06:42 10.1 7.2 82 1024.6 11.4 SW 11.4 0.0 0.0
06:43 10.1 7.2 82 1024.7 8.3 S 11.4 0.0 0.0
06:44 10.1 7.2 82 1024.7 4.5 NNE 11.4 0.0 0.0
06:45 10.1 7.2 82 1024.7 3.8 NW 11.4 0.0 0.0
06:46 10.1 7.2 82 1024.7 8.3 NE 11.4 0.0 0.0
06:47 10.1 7.2 82 1024.7 5.4 ENE 11.4 0.0 0.0
06:48 10.1 7.2 82 1024.7 4.5 NW 11.4 0.0 0.0
06:49 10.2 7.3 82 1024.7 6.0 WNW 11.4 0.0 0.0
06:50 10.2 7.3 82 1024.7 6.9 N 11.4 0.0 0.0
06:51 10.2 7.3 82 1024.8 9.2 NE 11.4 0.0 0.0
06:52 10.2 7.3 82 1024.9 3.8 WNW 11.4 0.0 0.0
06:53 10.2 7.3 82 1024.8 4.5 NW 9.2 0.0 0.0
06:54 10.2 7.4 83 1024.8 4.5 NE 9.2 0.0 0.0
06:56 10.2 7.4 83 1024.9 5.4 NE 9.2 0.0 0.0
06:57 10.2 7.4 83 1024.8 6.9 WSW 9.2 0.0 0.0
06:58 10.2 7.4 83 1025.0 3.1 SW 9.2 0.0 0.0
06:59 10.2 7.4 83 1024.8 3.8 N 9.2 0.0 0.0
07:00 10.3 7.5 83 1024.7 4.5 ENE 9.2 0.0 0.0
07:01 10.3 7.5 83 1024.7 4.5 ENE 6.9 0.0 0.0
07:02 10.3 7.5 83 1024.8 6.0 NW 6.9 0.0 0.0
07:03 10.3 7.5 83 1024.8 6.0 N 6.9 0.0 0.0
07:04 10.3 7.5 83 1024.9 5.4 E 6.9 0.0 0.0
07:05 10.3 7.5 83 1024.8 7.6 E 7.6 0.0 0.0
07:06 10.3 7.5 83 1024.9 9.8 N 9.8 0.0 0.0
07:07 10.3 7.5 83 1024.8 9.8 NW 9.8 0.0 0.0
07:08 10.4 7.6 83 1024.8 4.5 N 9.8 0.0 0.0
07:09 10.4 7.6 83 1024.7 3.1 NW 9.8 0.0 0.0
07:10 10.4 7.6 83 1024.9 3.1 NW 9.8 0.0 0.0
07:11 10.4 7.6 83 1024.8 3.1 NW 9.8 0.0 0.0
07:12 10.4 7.6 83 1024.7 7.6 S 9.8 0.0 0.0
07:13 10.4 7.6 83 1024.8 3.8 S 9.8 0.0 0.0
07:14 10.4 7.6 83 1024.8 9.2 NE 9.8 0.0 0.0
07:15 10.5 7.7 83 1024.6 8.3 N 9.8 0.0 0.0
07:17 10.5 7.7 83 1024.8 8.3 E 11.4 0.0 0.0
07:18 10.5 7.7 83 1024.8 3.8 W 11.4 0.0 0.0
07:19 10.5 7.9 84 1025.0 3.8 SW 11.4 0.0 0.0
07:20 10.5 7.9 84 1024.9 5.4 WNW 11.4 0.0 0.0
07:21 10.5 7.9 84 1024.9 5.4 WNW 11.4 0.0 0.0
07:22 10.5 7.7 83 1024.8 5.4 NE 11.4 0.0 0.0
07:23 10.6 8.0 84 1024.9 5.4 WSW 11.4 0.0 0.0
07:24 10.6 8.0 84 1024.8 6.0 S 11.4 0.0 0.0
07:25 10.6 8.0 84 1024.9 7.6 N 11.4 0.0 0.0
07:26 10.6 8.0 84 1025.0 4.5 NW 11.4 0.0 0.0
07:27 10.6 8.0 84 1024.9 4.5 NE 9.8 0.0 0.0
07:28 10.6 8.0 84 1025.0 4.5 N 7.6 0.0 0.0
07:29 10.6 8.0 84 1024.8 7.6 E 7.6 0.0 0.0
07:30 10.6 8.0 84 1025.0 7.6 NE 7.6 0.0 0.0
07:31 10.6 8.0 84 1024.8 6.0 NE 7.6 0.0 0.0
07:32 10.6 8.0 84 1024.9 9.2 NW 9.2 0.0 0.0
07:34 10.6 8.0 84 1025.0 6.9 NE 9.2 0.0 0.0
07:35 10.7 8.1 84 1024.9 6.9 S 9.2 0.0 0.0
07:36 10.7 8.1 84 1024.9 6.9 N 9.2 0.0 0.0
07:37 10.7 8.1 84 1024.9 4.5 SW 9.2 0.0 0.0
07:38 10.7 8.1 84 1025.0 9.2 NW 9.2 0.0 0.0
07:39 10.7 8.1 84 1024.8 6.9 SW 9.2 0.0 0.0
07:40 10.7 8.1 84 1024.9 3.8 NW 9.2 0.0 0.0
07:41 10.7 8.1 84 1025.0 5.4 E 9.2 0.0 0.0
07:42 10.7 8.1 84 1024.8 6.0 SW 9.2 0.0 0.0
07:43 10.7 8.1 84 1024.9 6.0 E 9.2 0.0 0.0
07:44 10.7 8.1 84 1025.0 6.0 NE 9.2 0.0 0.0
07:45 10.7 8.1 84 1024.9 4.5 SE 9.2 0.0 0.0
07:46 10.7 8.1 84 1025.0 6.9 NW 9.2 0.0 0.0
07:47 10.7 8.1 84 1024.9 6.0 SE 9.2 0.0 0.0
07:48 10.7 8.1 84 1024.9 4.5 S 9.2 0.0 0.0
07:49 10.8 8.2 84 1024.9 8.3 SE 8.3 0.0 0.0
07:51 10.8 8.2 84 1025.0 7.6 E 8.3 0.0 0.0
07:52 10.8 8.2 84 1024.9 6.9 N 8.3 0.0 0.0
07:53 10.8 8.2 84 1024.9 5.4 NW 8.3 0.0 0.0
07:54 10.8 8.2 84 1024.8 8.3 SW 8.3 0.0 0.0
07:55 10.8 8.2 84 1024.9 7.6 N 8.3 0.0 0.0
07:56 10.8 8.2 84 1024.9 6.9 E 8.3 0.0 0.0
07:57 10.8 8.2 84 1025.0 3.8 NW 8.3 0.0 0.0
07:58 10.9 8.3 84 1024.9 8.3 N 8.3 0.0 0.0
07:59 10.9 8.3 84 1024.9 3.8 NE 8.3 0.0 0.0
08:00 10.9 8.3 84 1024.9 6.9 N 8.3 0.0 0.0
08:01 10.9 8.3 84 1025.0 9.2 N 9.2 0.0 0.0
08:02 10.9 8.3 84 1024.9 9.2 N 9.2 0.0 0.0
08:03 10.9 8.3 84 1025.0 4.5 NE 9.2 0.0 0.0
08:04 10.9 8.3 84 1025.1 8.3 NW 9.2 0.0 0.0
08:05 10.9 8.3 84 1025.1 6.0 NE 9.2 0.0 0.0
08:06 10.9 8.3 84 1024.9 6.0 NE 9.2 0.0 0.0
08:07 11.0 8.4 84 1024.9 6.9 N 9.2 0.0 0.0
08:08 11.0 8.4 84 1025.1 8.3 N 9.2 0.0 0.0
08:09 11.0 8.4 84 1025.1 8.3 N 9.2 0.0 0.0
08:10 11.0 8.4 84 1024.9 8.3 N 9.2 0.0 0.0
08:12 11.0 8.4 84 1025.0 6.0 W 9.2 0.0 0.0
08:13 11.0 8.4 84 1025.0 6.0 NW 9.2 0.0 0.0
08:14 11.0 8.4 84 1024.8 6.0 WSW 9.2 0.0 0.0
08:15 11.1 8.5 84 1025.0 8.3 N 9.2 0.0 0.0
08:16 11.1 8.5 84 1024.9 5.4 N 9.2 0.0 0.0
08:17 11.1 8.5 84 1024.7 4.5 SW 9.2 0.0 0.0
08:18 11.1 8.3 83 1024.9 8.3 NE 9.2 0.0 0.0
08:19 11.1 8.5 84 1024.7 7.6 W 9.2 0.0 0.0
08:20 11.1 8.5 84 1024.9 6.0 NE 9.2 0.0 0.0
08:21 11.1 8.3 83 1024.9 8.3 NW 9.2 0.0 0.0
08:22 11.2 8.4 83 1024.9 6.9 NW 8.3 0.0 0.0
08:23 11.2 8.4 83 1024.9 7.6 NE 8.3 0.0 0.0
08:24 11.2 8.4 83 1025.0 6.0 NW 8.3 0.0 0.0
08:25 11.2 8.6 84 1024.8 13.0 N 13.0 0.0 0.0
08:26 11.3 8.5 83 1025.0 5.4 NE 13.0 0.0 0.0
08:27 11.3 8.5 83 1024.9 9.2 N 13.0 0.0 0.0
08:29 11.2 8.4 83 1025.0 9.8 SE 13.0 0.0 0.0
08:30 11.3 8.5 83 1025.0 6.0 NE 13.0 0.0 0.0
08:31 11.3 8.5 83 1024.9 5.4 N 13.0 0.0 0.0
08:32 11.3 8.5 83 1025.0 3.8 S 13.0 0.0 0.0
08:33 11.4 8.6 83 1025.1 3.8 NE 13.0 0.0 0.0
08:34 11.4 8.6 83 1025.0 6.9 N 13.0 0.0 0.0
08:35 11.4 8.6 83 1025.1 9.2 NNE 9.8 0.0 0.0
08:36 11.4 8.6 83 1025.1 13.6 N 13.6 0.0 0.0
08:37 11.4 8.6 83 1025.2 6.9 W 13.6 0.0 0.0
08:38 11.4 8.6 83 1025.1 5.4 E 13.6 0.0 0.0
08:39 11.4 8.6 83 1025.1 5.4 NE 13.6 0.0 0.0
08:40 11.4 8.6 83 1025.1 7.6 SE 13.6 0.0 0.0
08:41 11.5 8.7 83 1025.1 6.0 WNW 13.6 0.0 0.0
08:42 11.5 8.7 83 1025.0 3.1 NE 13.6 0.0 0.0
08:43 11.5 8.7 83 1025.2 3.8 NE 13.6 0.0 0.0
08:44 11.5 8.7 83 1025.1 3.8 N 13.6 0.0 0.0
08:45 11.5 8.7 83 1025.1 4.5 N 13.6 0.0 0.0
08:46 11.5 8.7 83 1025.2 5.4 NW 7.6 0.0 0.0
08:48 11.5 8.7 83 1025.1 4.5 NE 7.6 0.0 0.0
08:49 11.5 8.7 83 1025.1 9.2 SW 9.2 0.0 0.0
08:50 11.6 8.8 83 1025.0 8.3 WSW 9.2 0.0 0.0
08:51 11.6 8.8 83 1025.1 6.0 S 9.2 0.0 0.0
08:52 11.6 8.6 82 1025.2 8.3 E 9.2 0.0 0.0
08:53 11.6 8.8 83 1025.1 7.6 N 9.2 0.0 0.0
08:54 11.6 8.6 82 1025.1 6.0 SE 9.2 0.0 0.0
08:55 11.6 8.6 82 1025.0 5.4 N 9.2 0.0 0.0
08:56 11.6 8.6 82 1025.1 8.3 E 9.2 0.0 0.0
08:57 11.6 8.6 82 1025.2 3.8 SE 9.2 0.0 0.0
08:58 11.7 8.7 82 1025.0 4.5 NW 9.2 0.0 0.0
08:59 11.7 8.7 82 1025.2 4.5 E 9.2 0.0 0.0
09:00 11.7 8.7 82 1025.1 8.3 N 8.3 0.0 0.0
09:01 11.7 8.7 82 1025.1 3.8 NW 8.3 0.0 0.0
09:02 11.8 8.8 82 1025.1 4.5 NE 8.3 0.0 0.0
09:03 11.8 8.8 82 1025.2 5.4 NW 8.3 0.0 0.0
09:04 11.8 8.8 82 1025.3 7.6 NE 8.3 0.0 0.0
09:05 11.8 8.8 82 1025.2 7.6 N 8.3 0.0 0.0
09:06 11.9 8.9 82 1025.2 6.0 N 8.3 0.0 0.0
09:07 11.9 8.9 82 1025.0 6.9 SW 8.3 0.0 0.0
09:09 11.9 8.9 82 1025.0 3.1 NW 8.3 0.0 0.0
09:10 11.9 8.9 82 1025.1 3.1 NW 7.6 0.0 0.0
09:11 12.0 9.0 82 1025.0 4.5 NW 7.6 0.0 0.0
09:12 12.1 9.1 82 1025.1 8.3 N 8.3 0.0 0.0
09:13 12.1 9.1 82 1025.1 6.9 NNE 8.3 0.0 0.0
09:14 12.1 9.1 82 1025.1 7.6 NNE 8.3 0.0 0.0
09:15 12.1 9.1 82 1025.2 4.5 NE 8.3 0.0 0.0
09:16 12.2 9.2 82 1025.2 7.6 W 8.3 0.0 0.0
09:17 12.1 9.1 82 1025.1 4.5 N 8.3 0.0 0.0
09:18 12.2 9.2 82 1025.1 8.3 E 8.3 0.0 0.0
09:19 12.2 9.2 82 1025.1 7.6 WNW 8.3 0.0 0.0
09:20 12.2 9.2 82 1025.1 4.5 WNW 8.3 0.0 0.0
09:21 12.2 9.0 81 1025.1 5.4 WNW 8.3 0.0 0.0
09:22 12.2 9.0 81 1025.1 5.4 WNW 8.3 0.0 0.0
09:23 12.3 9.1 81 1025.1 3.1 S 8.3 0.0 0.0
09:24 12.3 9.1 81 1025.1 6.9 SW 8.3 0.0 0.0
09:25 12.3 9.1 81 1025.0 6.0 NW 8.3 0.0 0.0
09:27 12.3 9.1 81 1024.9 3.8 SW 8.3 0.0 0.0
09:28 12.4 9.2 81 1024.8 5.4 SE 8.3 0.0 0.0
09:29 12.4 9.2 81 1024.9 5.4 W 7.6 0.0 0.0
09:30 12.4 9.2 81 1025.0 6.9 ENE 7.6 0.0 0.0
09:31 12.4 9.2 81 1025.1 5.4 NNE 7.6 0.0 0.0
09:32 12.5 9.3 81 1025.0 5.4 NW 7.6 0.0 0.0
09:33 12.5 9.3 81 1024.8 6.0 N 7.6 0.0 0.0
09:34 12.5 9.3 81 1025.0 14.5 N 14.5 0.0 0.0
09:35 12.5 9.3 81 1025.1 7.6 NE 14.5 0.0 0.0
09:36 12.5 9.3 81 1025.0 6.9 SE 14.5 0.0 0.0
09:37 12.6 9.2 80 1025.0 8.3 NE 14.5 0.0 0.0
09:38 12.6 9.2 80 1025.0 6.9 NW 14.5 0.0 0.0
09:39 12.6 9.2 80 1025.0 4.5 NW 14.5 0.0 0.0
09:40 12.6 9.2 80 1025.0 5.4 N 14.5 0.0 0.0
09:41 12.7 9.3 80 1025.0 7.6 NW 14.5 0.0 0.0
09:42 12.7 9.3 80 1024.9 7.6 NE 14.5 0.0 0.0
09:43 12.7 9.3 80 1024.9 3.8 S 14.5 0.0 0.0
09:44 12.7 9.3 80 1024.9 6.9 NE 8.3 0.0 0.0
09:46 12.8 9.4 80 1025.0 3.8 WNW 8.3 0.0 0.0
09:47 12.8 9.4 80 1025.0 6.0 NE 7.6 0.0 0.0
09:48 12.8 9.3 79 1024.9 7.6 N 7.6 0.0 0.0
09:49 12.8 9.3 79 1024.9 7.6 N 7.6 0.0 0.0
09:50 12.8 9.3 79 1024.9 9.2 NW 9.2 0.0 0.0
09:51 12.8 9.3 79 1024.9 9.2 NW 9.2 0.0 0.0
09:52 12.9 9.4 79 1024.9 9.8 W 9.8 0.0 0.0
09:53 12.8 9.3 79 1024.8 9.2 W 9.8 0.0 0.0
09:54 12.9 9.4 79 1024.9 9.8 N 9.8 0.0 0.0
09:55 12.9 9.4 79 1024.7 6.9 NW 9.8 0.0 0.0
09:56 12.9 9.2 78 1024.9 7.6 W 9.8 0.0 0.0
09:57 12.9 9.2 78 1024.7 6.9 NE 9.8 0.0 0.0
09:58 13.0 9.3 78 1024.7 6.9 NW 9.8 0.0 0.0
09:59 13.0 9.3 78 1024.6 6.0 NW 9.8 0.0 0.0
10:00 13.1 9.4 78 1024.7 6.0 NE 9.8 0.0 0.0
10:01 13.1 9.4 78 1024.6 9.2 SE 9.8 0.0 0.0
10:02 13.2 9.5 78 1024.5 6.0 NE 9.8 0.0 0.0
10:04 13.3 9.5 78 1024.7 6.9 SW 9.2 0.0 0.0
10:05 13.3 9.5 78 1024.6 9.2 N 9.2 0.0 0.0
10:06 13.3 9.4 77 1024.7 8.3 N 9.2 0.0 0.0
10:07 13.3 9.4 77 1024.7 6.0 N 9.2 0.0 0.0
10:08 13.3 9.4 77 1024.7 9.2 NE 11.4 0.0 0.0
10:09 13.3 9.4 77 1024.7 9.2 NE 11.4 0.0 0.0
10:10 13.3 9.4 77 1024.6 9.2 NE 11.4 0.0 0.0
10:11 13.3 9.4 77 1024.6 9.2 NE 11.4 0.0 0.0
10:12 13.2 9.3 77 1024.5 9.8 NE 11.4 0.0 0.0
10:13 13.2 9.3 77 1024.7 6.9 NW 11.4 0.0 0.0
10:14 13.1 9.0 76 1024.6 10.7 N 11.4 0.0 0.0
10:15 13.1 9.0 76 1024.7 9.2 W 11.4 0.0 0.0
10:16 13.1 9.0 76 1024.5 9.2 W 11.4 0.0 0.0
10:17 13.0 8.9 76 1024.5 6.0 N 11.4 0.0 0.0
10:18 13.0 8.9 76 1024.5 10.7 NW 10.7 0.0 0.0
10:19 13.0 8.9 76 1024.5 11.4 NE 11.4 0.0 0.0
10:20 12.9 8.8 76 1024.6 6.9 SW 11.4 0.0 0.0
10:22 12.9 8.8 76 1024.4 9.2 SE 11.4 0.0 0.0
10:23 13.0 8.9 76 1024.4 8.3 SW 11.4 0.0 0.0
10:24 13.0 8.9 76 1024.4 5.4 N 11.4 0.0 0.0
10:25 13.0 8.9 76 1024.5 5.4 S 11.4 0.0 0.0
10:26 13.0 8.9 76 1024.5 5.4 S 11.4 0.0 0.0
10:27 13.1 9.0 76 1024.4 7.6 SW 11.4 0.0 0.0
10:28 13.2 9.1 76 1024.4 6.9 E 11.4 0.0 0.0
10:29 13.2 9.1 76 1024.5 7.6 NE 11.4 0.0 0.0
10:30 13.4 9.3 76 1024.4 5.4 NW 13.0 0.0 0.0
10:31 13.4 9.3 76 1024.4 6.0 E 13.0 0.0 0.0
10:32 13.5 9.4 76 1024.5 6.0 WNW 13.0 0.0 0.0
10:33 13.5 9.4 76 1024.3 9.8 NE 13.0 0.0 0.0
10:34 13.5 9.4 76 1024.5 11.4 N 13.0 0.0 0.0
10:35 13.5 9.4 76 1024.5 6.9 SE 13.0 0.0 0.0
10:36 13.5 9.2 75 1024.6 12.1 SE 13.0 0.0 0.0
10:37 13.5 9.2 75 1024.4 5.4 E 13.0 0.0 0.0
10:38 13.6 9.3 75 1024.5 9.8 N 13.0 0.0 0.0
10:40 13.7 9.2 74 1024.5 12.1 E 12.1 0.0 0.0
10:41 13.7 9.2 74 1024.5 6.9 NW 12.1 0.0 0.0
10:42 13.7 9.2 74 1024.5 4.5 N 12.1 0.0 0.0
10:43 13.8 9.5 75 1024.6 3.8 N 12.1 0.0 0.0
10:44 13.9 9.3 74 1024.5 6.0 NW 12.1 0.0 0.0
10:45 13.9 9.3 74 1024.5 6.0 NW 12.1 0.0 0.0
10:46 13.9 9.5 75 1024.5 9.2 N 12.1 0.0 0.0
10:47 14.0 9.4 74 1024.5 6.0 NW 12.1 0.0 0.0
10:48 14.0 9.4 74 1024.5 5.4 NW 12.1 0.0 0.0
10:49 14.0 9.4 74 1024.5 5.4 SE 12.1 0.0 0.0
10:50 14.0 9.4 74 1024.5 6.9 SE 12.1 0.0 0.0
10:51 14.0 9.4 74 1024.6 9.8 ENE 12.1 0.0 0.0
10:52 14.0 9.4 74 1024.5 9.2 SSE 12.1 0.0 0.0
10:53 14.0 9.4 74 1024.5 8.3 N 12.1 0.0 0.0
10:54 14.0 9.2 73 1024.4 7.6 S 12.1 0.0 0.0
10:55 14.0 9.2 73 1024.5 9.2 W 12.1 0.0 0.0
10:56 13.9 9.1 73 1024.5 8.3 ENE 12.1 0.0 0.0
10:58 13.8 9.0 73 1024.5 11.4 NE 12.1 0.0 0.0
10:59 13.7 9.0 73 1024.4 11.4 S 12.1 0.0 0.0
11:00 13.7 9.0 73 1024.3 8.3 NW 11.4 0.0 0.0
11:02 13.6 8.9 73 1024.3 6.9 SE 11.4 0.0 0.0
11:03 13.6 8.9 73 1024.3 12.1 SE 12.1 0.0 0.0
11:04 13.6 8.9 73 1024.2 10.7 NE 12.1 0.0 0.0
11:05 13.7 9.2 74 1024.3 6.9 SE 12.1 0.0 0.0
11:06 13.7 9.2 74 1024.3 9.8 NW 12.1 0.0 0.0
11:07 13.8 9.0 73 1024.4 8.3 NW 12.1 0.0 0.0
11:08 13.8 9.0 73 1024.3 12.1 NNE 12.1 0.0 0.0
11:09 13.8 9.0 73 1024.4 12.1 NNE 12.1 0.0 0.0
11:10 13.8 9.0 73 1024.1 12.1 NNE 12.1 0.0 0.0
11:11 14.0 9.2 73 1024.2 5.4 NE 12.1 0.0 0.0
11:12 14.0 9.4 74 1024.4 6.9 NW 12.1 0.0 0.0
11:14 14.2 9.4 73 1024.2 3.8 NE 12.1 0.0 0.0
11:15 14.3 9.5 73 1024.4 4.5 ENE 12.1 0.0 0.0
11:16 14.4 9.6 73 1024.3 7.6 N 12.1 0.0 0.0
11:18 14.4 9.6 73 1024.4 6.9 S 12.1 0.0 0.0
11:20 14.5 9.5 72 1024.5 5.4 W 12.1 0.0 0.0
11:21 14.5 9.5 72 1024.4 8.3 SE 8.3 0.0 0.0
11:22 14.6 9.8 73 1024.5 3.8 WNW 8.3 0.0 0.0
11:23 14.7 9.9 73 1024.4 7.6 NW 8.3 0.0 0.0
11:24 14.8 9.8 72 1024.5 6.9 S 8.3 0.0 0.0
11:25 14.9 9.9 72 1024.3 5.4 NE 8.3 0.0 0.0
11:26 15.0 10.0 72 1024.4 7.6 SW 8.3 0.0 0.0
11:27 15.0 10.0 72 1024.3 4.5 E 8.3 0.0 0.0
11:28 15.0 9.8 71 1024.3 5.4 NW 8.3 0.0 0.0
11:29 15.0 9.8 71 1024.4 8.3 NE 8.3 0.0 0.0
11:30 15.0 9.6 70 1024.4 9.8 N 9.8 0.0 0.0
11:31 15.0 9.6 70 1024.4 9.8 N 9.8 0.0 0.0
11:32 15.0 9.6 70 1024.4 6.0 SSE 11.4 0.0 0.0
11:33 15.1 9.7 70 1024.4 5.4 NE 11.4 0.0 0.0
11:34 15.1 9.7 70 1024.4 7.6 W 11.4 0.0 0.0
11:35 15.1 9.7 70 1024.4 8.3 NE 11.4 0.0 0.0
11:36 15.1 9.7 70 1024.3 6.9 NE 11.4 0.0 0.0
11:37 15.1 9.7 70 1024.5 5.4 ENE 11.4 0.0 0.0
11:39 15.1 9.7 70 1024.4 4.5 WSW 11.4 0.0 0.0
11:40 15.0 9.4 69 1024.4 8.3 NW 11.4 0.0 0.0
11:41 15.0 9.6 70 1024.4 6.0 NW 11.4 0.0 0.0
11:42 15.0 9.6 70 1024.4 7.6 N 9.2 0.0 0.0
11:43 15.0 9.6 70 1024.5 4.5 NE 9.2 0.0 0.0
11:44 15.1 9.7 70 1024.3 4.5 N 9.2 0.0 0.0
11:45 15.1 9.5 69 1024.3 5.4 NW 9.2 0.0 0.0
11:46 15.0 9.4 69 1024.6 5.4 SW 9.2 0.0 0.0
11:47 15.0 9.4 69 1024.3 3.8 NW 9.2 0.0 0.0
11:48 15.0 9.4 69 1024.4 3.1 E 9.2 0.0 0.0
11:49 15.0 9.4 69 1024.5 3.1 NE 9.2 0.0 0.0
11:50 15.0 9.6 70 1024.4 4.5 ENE 9.2 0.0 0.0
11:51 14.9 9.5 70 1024.4 3.8 N 9.2 0.0 0.0
11:52 14.9 9.3 69 1024.4 3.8 SE 7.6 0.0 0.0
11:53 14.8 9.2 69 1024.3 8.3 NE 8.3 0.0 0.0
11:54 14.7 9.1 69 1024.3 4.5 NW 8.3 0.0 0.0
11:56 14.7 9.3 70 1024.2 5.4 E 8.3 0.0 0.0
11:57 14.7 9.3 70 1024.2 3.8 SE 8.3 0.0 0.0
11:58 14.7 9.3 70 1024.4 13.0 N 13.0 0.0 0.0
11:59 14.7 9.3 70 1024.4 10.7 NE 13.0 0.0 0.0
12:00 14.8 9.4 70 1024.3 6.0 W 13.0 0.0 0.0
12:01 14.8 9.4 70 1024.5 6.0 W 13.0 0.0 0.0
12:02 14.8 9.4 70 1024.3 4.5 NE 13.0 0.0 0.0
12:03 14.9 9.5 70 1024.3 4.5 N 13.0 0.0 0.0
12:04 14.9 9.5 70 1024.2 7.6 SE 13.0 0.0 0.0
12:05 14.9 9.3 69 1024.4 5.4 NW 13.6 0.0 0.0
12:06 14.8 9.2 69 1024.3 6.9 NW 13.6 0.0 0.0
12:07 14.8 9.2 69 1024.3 5.4 WNW 13.6 0.0 0.0
12:08 14.7 9.1 69 1024.2 6.9 SE 13.6 0.0 0.0
12:09 14.7 9.1 69 1024.3 7.6 W 13.6 0.0 0.0
12:10 14.7 9.1 69 1024.4 7.6 W 13.6 0.0 0.0
12:11 14.7 9.1 69 1024.3 7.6 W 13.6 0.0 0.0
12:12 14.5 9.1 70 1024.2 6.0 NW 13.6 0.0 0.0
12:13 14.5 9.1 70 1024.2 6.9 N 13.6 0.0 0.0
12:15 14.5 9.3 71 1024.3 5.4 WNW 13.6 0.0 0.0
12:16 14.7 9.5 71 1024.2 5.4 E 10.7 0.0 0.0
12:17 14.7 9.3 70 1024.3 6.0 S 10.7 0.0 0.0
12:18 14.9 9.5 70 1024.1 5.4 NE 10.7 0.0 0.0
12:19 14.9 9.5 70 1024.3 5.4 SW 10.7 0.0 0.0
12:20 15.0 9.6 70 1024.2 5.4 WNW 10.7 0.0 0.0
12:21 15.0 9.4 69 1024.2 6.0 NE 10.7 0.0 0.0
12:22 15.0 9.4 69 1024.2 10.7 N 10.7 0.0 0.0
12:23 15.1 9.5 69 1024.2 7.6 NW 10.7 0.0 0.0
12:24 15.1 9.5 69 1024.2 7.6 NE 10.7 0.0 0.0
12:25 15.1 9.2 68 1024.1 6.0 NW 10.7 0.0 0.0
12:26 15.1 9.5 69 1024.2 5.4 NW 10.7 0.0 0.0
12:27 15.1 9.5 69 1024.2 5.4 NW 10.7 0.0 0.0
12:28 15.2 9.6 69 1024.3 5.4 S 10.7 0.0 0.0
12:29 15.2 9.6 69 1024.2 7.6 NW 10.7 0.0 0.0
12:30 15.3 9.7 69 1024.1 6.0 NE 10.7 0.0 0.0
12:31 15.3 9.7 69 1024.0 5.4 SW 10.7 0.0 0.0
12:32 15.3 9.7 69 1024.2 6.0 NW 10.7 0.0 0.0
12:34 15.4 9.7 69 1024.2 4.5 W 8.3 0.0 0.0
12:35 15.5 9.8 69 1024.1 6.0 N 8.3 0.0 0.0
12:36 15.6 9.7 68 1024.3 6.9 NW 7.6 0.0 0.0
12:37 15.6 9.7 68 1024.3 3.8 E 7.6 0.0 0.0
12:38 15.6 9.5 67 1024.2 4.5 NW 7.6 0.0 0.0
12:39 15.6 9.7 68 1024.2 4.5 NW 7.6 0.0 0.0
12:40 15.6 9.5 67 1024.2 4.5 N 7.6 0.0 0.0
12:41 15.6 9.7 68 1024.2 7.6 WNW 7.6 0.0 0.0
12:42 15.6 9.7 68 1024.2 4.5 SE 7.6 0.0 0.0
12:43 15.6 9.7 68 1024.3 3.1 SW 7.6 0.0 0.0
12:44 15.7 9.8 68 1024.1 3.8 SE 7.6 0.0 0.0
12:45 15.7 9.8 68 1024.2 6.9 N 7.6 0.0 0.0
12:46 15.7 9.8 68 1024.1 8.3 NE 8.3 0.0 0.0
12:47 15.8 9.9 68 1024.3 5.4 NE 8.3 0.0 0.0
12:48 15.8 9.7 67 1024.3 9.2 NE 9.2 0.0 0.0
12:49 15.8 9.7 67 1024.1 6.0 NE 9.2 0.0 0.0
12:50 15.8 9.7 67 1024.3 5.4 SW 9.2 0.0 0.0
12:51 15.8 9.7 67 1024.2 4.5 N 9.2 0.0 0.0
12:53 15.9 9.8 67 1024.2 6.9 NW 9.2 0.0 0.0
12:54 15.9 9.8 67 1024.1 6.9 NE 9.2 0.0 0.0
12:55 15.9 9.6 66 1024.2 4.5 NW 9.2 0.0 0.0
12:56 15.9 9.6 66 1024.2 5.4 NW 9.2 0.0 0.0
12:57 16.0 9.9 67 1024.1 4.5 N 9.2 0.0 0.0
12:58 16.1 10.0 67 1024.2 4.5 NE 6.9 0.0 0.0
12:59 16.1 10.0 67 1024.1 6.9 NW 6.9 0.0 0.0
13:00 16.2 10.1 67 1024.2 6.0 WNW 6.9 0.0 0.0
13:01 16.3 9.9 66 1024.1 6.9 N 6.9 0.0 0.0
13:02 16.3 10.2 67 1024.2 3.8 S 6.9 0.0 0.0
13:03 16.3 9.9 66 1024.2 4.5 NW 6.9 0.0 0.0
13:04 16.3 9.9 66 1024.2 9.8 W 9.8 0.0 0.0
13:05 16.4 10.0 66 1024.2 6.9 SE 9.8 0.0 0.0
13:06 16.5 10.1 66 1024.1 6.9 SW 9.8 0.0 0.0
13:07 16.5 9.9 65 1024.0 9.8 N 9.8 0.0 0.0
13:08 16.5 9.9 65 1024.0 3.8 E 9.8 0.0 0.0
13:09 16.5 9.9 65 1024.2 5.4 NW 9.8 0.0 0.0
13:10 16.5 9.9 65 1024.1 5.4 NW 9.8 0.0 0.0
13:11 16.5 9.9 65 1024.1 5.4 NW 9.8 0.0 0.0
13:12 16.6 10.2 66 1024.1 6.0 N 9.8 0.0 0.0
13:13 16.6 10.0 65 1024.2 4.5 NW 9.8 0.0 0.0
13:14 16.6 9.8 64 1024.1 4.5 NW 9.8 0.0 0.0
13:15 16.5 9.9 65 1024.2 3.8 N 9.8 0.0 0.0
13:16 16.5 9.9 65 1024.0 3.1 NE 9.8 0.0 0.0
13:17 16.6 9.8 64 1024.0 4.5 NW 9.8 0.0 0.0
13:18 16.5 9.7 64 1024.1 3.8 SE 6.0 0.0 0.0
13:20 16.4 9.6 64 1024.0 4.5 NW 7.6 0.0 0.0
13:21 16.4 9.6 64 1024.1 5.4 N 7.6 0.0 0.0
13:22 16.4 9.6 64 1024.1 6.0 NE 7.6 0.0 0.0
13:23 16.4 9.8 65 1024.0 5.4 NE 7.6 0.0 0.0
13:24 16.4 9.8 65 1024.0 3.8 W 7.6 0.0 0.0
13:25 16.4 9.8 65 1024.0 5.4 NW 7.6 0.0 0.0
13:26 16.4 9.8 65 1024.2 3.8 SW 7.6 0.0 0.0
13:27 16.5 9.7 64 1024.1 6.9 NW 7.6 0.0 0.0
13:28 16.5 9.7 64 1024.2 6.9 N 7.6 0.0 0.0
13:29 16.5 9.7 64 1024.1 5.4 NW 6.9 0.0 0.0
13:30 16.5 9.7 64 1024.1 5.4 N 6.9 0.0 0.0
13:31 16.5 9.7 64 1024.1 5.4 N 6.9 0.0 0.0
13:32 16.5 9.7 64 1024.2 4.5 S 6.9 0.0 0.0
13:33 16.5 9.7 64 1024.0 6.0 S 6.9 0.0 0.0
13:34 16.4 9.3 63 1024.1 5.4 E 6.9 0.0 0.0
13:35 16.4 9.3 63 1024.1 6.9 W 6.9 0.0 0.0
13:36 16.4 9.6 64 1024.1 5.4 W 6.9 0.0 0.0
13:37 16.4 9.6 64 1024.1 4.5 N 6.9 0.0 0.0
13:39 16.5 9.7 64 1024.2 5.4 NE 6.9 0.0 0.0
13:40 16.5 9.7 64 1024.0 4.5 NE 6.9 0.0 0.0
13:41 16.4 9.6 64 1024.1 7.6 NE 7.6 0.0 0.0
13:42 16.5 9.7 64 1024.0 7.6 ENE 7.6 0.0 0.0
13:43 16.5 9.7 64 1024.2 5.4 NE 7.6 0.0 0.0
13:44 16.5 9.9 65 1024.1 6.0 N 7.6 0.0 0.0
13:45 16.6 9.8 64 1024.1 8.3 ENE 8.3 0.0 0.0
13:46 16.6 9.8 64 1024.2 3.1 NE 8.3 0.0 0.0
13:47 16.7 9.9 64 1024.2 6.0 NW 8.3 0.0 0.0
13:48 16.7 9.6 63 1024.2 8.3 NE 8.3 0.0 0.0
13:49 16.7 9.6 63 1024.1 4.5 N 8.3 0.0 0.0
13:50 16.7 9.6 63 1024.3 4.5 N 8.3 0.0 0.0
13:51 16.7 9.6 63 1024.2 4.5 N 8.3 0.0 0.0
13:52 16.7 9.9 64 1024.2 3.8 NE 8.3 0.0 0.0
13:53 16.8 10.0 64 1024.1 3.8 N 8.3 0.0 0.0
13:54 16.8 9.7 63 1024.2 4.5 S 8.3 0.0 0.0
13:55 16.8 9.7 63 1024.4 2.2 NE 8.3 0.0 0.0
13:57 16.9 10.1 64 1024.2 5.4 N 8.3 0.0 0.0
13:58 16.9 10.1 64 1024.1 3.8 N 8.3 0.0 0.0
13:59 16.9 10.1 64 1024.2 6.9 W 6.9 0.0 0.0
14:00 16.9 10.1 64 1024.1 4.5 N 6.9 0.0 0.0
14:01 17.0 10.1 64 1024.3 9.2 SW 9.2 0.0 0.0
14:02 17.0 10.1 64 1024.2 3.8 N 9.2 0.0 0.0
14:03 17.0 9.9 63 1024.1 4.5 ENE 9.2 0.0 0.0
14:04 17.0 9.9 63 1024.4 5.4 E 9.2 0.0 0.0
14:05 17.0 9.7 62 1024.3 5.4 E 9.2 0.0 0.0
14:06 16.9 9.6 62 1024.2 6.9 NE 9.2 0.0 0.0
14:07 16.9 9.6 62 1024.1 10.7 NW 10.7 0.0 0.0
14:08 16.8 9.5 62 1024.1 5.4 NE 10.7 0.0 0.0
14:09 16.8 9.5 62 1024.3 6.0 NW 10.7 0.0 0.0
14:10 16.8 9.5 62 1024.0 6.0 NW 10.7 0.0 0.0
14:11 16.8 9.5 62 1024.2 6.0 NW 10.7 0.0 0.0
14:12 16.7 9.6 63 1024.1 4.5 SE 10.7 0.0 0.0
14:13 16.7 9.4 62 1024.1 5.4 N 10.7 0.0 0.0
14:14 16.6 9.3 62 1024.2 5.4 NE 10.7 0.0 0.0
14:16 16.5 9.4 63 1024.0 5.4 N 10.7 0.0 0.0
14:17 16.5 9.4 63 1024.0 6.9 NW 9.8 0.0 0.0
14:18 16.5 9.2 62 1024.1 6.9 N 9.8 0.0 0.0
14:19 16.5 9.4 63 1024.0 6.0 N 9.8 0.0 0.0
14:20 16.5 9.4 63 1023.9 6.0 NE 9.8 0.0 0.0
14:21 16.6 9.5 63 1024.0 6.9 NE 9.8 0.0 0.0
14:22 16.6 9.5 63 1023.9 12.1 N 12.1 0.0 0.0
14:23 16.6 9.8 64 1024.0 7.6 N 12.1 0.0 0.0
14:24 16.7 9.6 63 1024.0 9.2 NE 12.1 0.0 0.0
14:25 16.7 9.6 63 1023.9 7.6 NW 12.1 0.0 0.0
14:26 16.7 9.6 63 1024.0 7.6 N 12.1 0.0 0.0
14:27 16.7 9.6 63 1023.8 8.3 SW 12.1 0.0 0.0
14:28 16.8 9.7 63 1023.9 4.5 N 12.1 0.0 0.0
14:29 16.8 10.0 64 1023.9 3.8 NE 12.1 0.0 0.0
14:30 16.8 9.7 63 1023.9 6.0 NNW 12.1 0.0 0.0
14:31 16.9 9.8 63 1023.9 4.5 NW 12.1 0.0 0.0
14:32 16.9 9.8 63 1023.9 8.3 NE 12.1 0.0 0.0
14:33 17.0 9.9 63 1023.7 6.9 NE 9.2 0.0 0.0
14:34 17.0 9.7 62 1023.9 5.4 SW 9.2 0.0 0.0
14:36 17.0 9.9 63 1023.7 6.0 SSW 8.3 0.0 0.0
14:37 16.9 9.6 62 1023.9 6.9 N 8.3 0.0 0.0
14:38 16.8 9.5 62 1023.8 6.9 W 8.3 0.0 0.0
14:39 16.8 9.7 63 1023.9 4.5 W 8.3 0.0 0.0
14:40 16.8 9.7 63 1023.8 7.6 NW 8.3 0.0 0.0
14:41 16.8 9.5 62 1023.8 7.6 N 8.3 0.0 0.0
14:42 16.7 9.1 61 1023.8 4.5 WNW 7.6 0.0 0.0
14:43 16.6 9.1 61 1023.8 3.8 E 7.6 0.0 0.0
14:44 16.5 9.0 61 1023.6 3.8 NE 7.6 0.0 0.0
14:45 16.4 8.9 61 1023.7 4.5 N 7.6 0.0 0.0
14:46 16.3 8.8 61 1023.7 5.4 E 7.6 0.0 0.0
14:47 16.2 8.7 61 1023.6 3.8 N 7.6 0.0 0.0
14:48 16.1 8.8 62 1023.6 6.0 SW 7.6 0.0 0.0
14:49 16.1 9.1 63 1023.7 4.5 SW 7.6 0.0 0.0
14:50 16.0 9.0 63 1023.7 6.9 SE 7.6 0.0 0.0
14:51 16.0 9.0 63 1023.6 5.4 N 6.9 0.0 0.0
14:53 16.0 9.0 63 1023.5 6.0 N 11.4 0.0 0.0
14:54 16.0 9.0 63 1023.4 6.0 NE 11.4 0.0 0.0
14:55 16.1 9.3 64 1023.5 8.3 NE 11.4 0.0 0.0
14:56 16.1 9.3 64 1023.5 6.0 N 11.4 0.0 0.0
14:57 16.1 9.1 63 1023.5 6.9 NE 11.4 0.0 0.0
14:58 16.2 9.4 64 1023.4 4.5 N 11.4 0.0 0.0
14:59 16.2 9.4 64 1023.5 9.2 E 11.4 0.0 0.0
15:00 16.2 9.4 64 1023.5 6.0 N 11.4 0.0 0.0
15:01 16.3 9.5 64 1023.5 4.5 NW 11.4 0.0 0.0
15:02 16.3 9.5 64 1023.5 4.5 NW 9.2 0.0 0.0
15:03 16.3 9.5 64 1023.5 5.4 N 9.2 0.0 0.0
15:04 16.4 9.6 64 1023.5 7.6 NE 9.2 0.0 0.0
15:05 16.5 9.7 64 1023.5 6.0 N 9.2 0.0 0.0
15:06 16.6 9.8 64 1023.5 8.3 SW 9.2 0.0 0.0
15:07 16.6 9.5 63 1023.4 6.9 S 9.2 0.0 0.0
15:08 16.6 9.5 63 1023.5 6.9 SE 9.2 0.0 0.0
15:09 16.7 9.6 63 1023.5 8.3 S 9.2 0.0 0.0
15:10 16.7 9.6 63 1023.5 8.3 S 9.2 0.0 0.0
15:11 16.7 9.6 63 1023.5 8.3 S 9.2 0.0 0.0
15:12 16.9 9.6 62 1023.6 5.4 NW 9.2 0.0 0.0
15:13 16.9 9.3 61 1023.6 10.7 W 10.7 0.0 0.0
15:15 16.9 9.3 61 1023.5 5.4 NW 10.7 0.0 0.0
15:16 17.0 9.2 60 1023.5 4.5 E 10.7 0.0 0.0
15:17 17.0 9.2 60 1023.4 4.5 NE 10.7 0.0 0.0
15:18 17.1 9.3 60 1023.5 3.1 E 10.7 0.0 0.0
15:19 17.1 9.3 60 1023.3 6.9 N 10.7 0.0 0.0
15:20 17.1 9.3 60 1023.4 8.3 N 10.7 0.0 0.0
15:21 17.2 9.4 60 1023.4 4.5 NE 10.7 0.0 0.0
15:22 17.2 9.4 60 1023.2 7.6 N 10.7 0.0 0.0
15:23 17.2 9.1 59 1023.3 5.4 NW 9.8 0.0 0.0
15:24 17.2 9.1 59 1023.2 5.4 NE 8.3 0.0 0.0
15:25 17.3 9.5 60 1023.3 3.1 SW 8.3 0.0 0.0
15:26 17.3 9.5 60 1023.3 3.1 SW 8.3 0.0 0.0
15:27 17.3 9.5 60 1023.1 3.8 N 8.3 0.0 0.0
15:28 17.4 9.3 59 1023.3 6.9 SE 8.3 0.0 0.0
15:29 17.4 9.3 59 1023.3 4.5 NE 8.3 0.0 0.0
15:30 17.5 9.4 59 1023.1 4.5 SE 8.3 0.0 0.0
15:31 17.5 9.2 58 1023.1 6.0 NW 7.6 0.0 0.0
15:32 17.4 9.1 58 1023.2 8.3 E 8.3 0.0 0.0
15:33 17.4 8.8 57 1023.1 7.6 E 8.3 0.0 0.0
15:34 17.4 8.8 57 1023.1 6.0 SW 8.3 0.0 0.0
15:35 17.3 8.4 56 1023.0 7.6 NE 8.3 0.0 0.0
15:36 17.3 8.7 57 1023.2 4.5 N 8.3 0.0 0.0
15:37 17.3 9.0 58 1023.0 3.8 SE 8.3 0.0 0.0
15:38 17.2 8.9 58 1023.1 3.8 NW 8.3 0.0 0.0
15:39 17.2 8.6 57 1023.0 3.1 NW 8.3 0.0 0.0
15:40 17.2 8.9 58 1023.0 2.2 N 8.3 0.0 0.0
15:41 17.3 9.2 59 1022.9 6.9 NE 8.3 0.0 0.0
15:42 17.3 8.7 57 1023.0 6.9 NE 7.6 0.0 0.0
15:43 17.2 8.9 58 1023.0 5.4 E 7.6 0.0 0.0
15:44 17.3 9.0 58 1023.0 5.4 NE 7.6 0.0 0.0
15:45 17.3 8.7 57 1023.1 5.4 N 7.6 0.0 0.0
15:46 17.3 8.7 57 1023.1 5.4 N 7.6 0.0 0.0
15:47 17.2 8.4 56 1023.1 6.9 NE 7.6 0.0 0.0
15:48 17.2 8.9 58 1023.0 3.8 E 7.6 0.0 0.0
15:49 17.2 8.6 57 1023.0 9.8 WSW 9.8 0.0 0.0
15:50 17.2 8.4 56 1023.0 6.0 N 9.8 0.0 0.0
15:51 17.2 8.4 56 1023.0 9.2 NW 9.8 0.0 0.0
15:52 17.2 8.4 56 1023.0 6.9 NW 9.8 0.0 0.0
15:53 17.1 8.5 57 1022.9 5.4 NW 9.8 0.0 0.0
15:54 17.1 8.5 57 1023.0 4.5 N 9.8 0.0 0.0
15:55 17.1 8.5 57 1023.0 3.8 N 9.8 0.0 0.0
15:56 17.1 8.5 57 1022.8 5.4 N 9.8 0.0 0.0
15:57 17.2 8.6 57 1023.1 6.9 N 9.8 0.0 0.0
15:58 17.2 8.6 57 1023.0 7.6 NW 9.8 0.0 0.0
15:59 17.2 8.6 57 1023.0 8.3 NW 9.2 0.0 0.0
16:00 17.2 8.6 57 1022.9 4.5 N 9.2 0.0 0.0
16:01 17.2 8.6 57 1023.0 4.5 N 8.3 0.0 0.0
16:02 17.2 8.6 57 1023.0 3.8 WNW 8.3 0.0 0.0
16:03 17.2 8.6 57 1022.9 6.0 SW 8.3 0.0 0.0
16:04 17.2 8.4 56 1022.9 6.0 NW 8.3 0.0 0.0
16:05 17.2 8.4 56 1022.9 5.4 NE 8.3 0.0 0.0
16:06 17.2 8.6 57 1023.0 2.2 N 8.3 0.0 0.0
16:07 17.2 8.9 58 1023.0 6.9 NE 8.3 0.0 0.0
16:08 17.3 8.4 56 1023.0 5.4 NE 8.3 0.0 0.0
16:09 17.3 8.7 57 1022.9 4.5 N 8.3 0.0 0.0
16:10 17.3 8.7 57 1022.7 4.5 N 6.9 0.0 0.0
16:11 17.3 8.7 57 1022.9 4.5 N 6.9 0.0 0.0
16:12 17.1 7.7 54 1023.0 4.5 SW 6.9 0.0 0.0
16:13 17.0 7.6 54 1023.0 3.8 N 6.9 0.0 0.0
16:14 17.0 7.9 55 1022.7 7.6 NE 7.6 0.0 0.0
16:15 17.0 8.2 56 1022.9 9.2 NW 9.2 0.0 0.0
16:16 17.0 8.2 56 1022.8 5.4 W 9.2 0.0 0.0
16:17 17.0 7.9 55 1022.9 7.6 S 9.2 0.0 0.0
16:18 17.0 7.9 55 1022.8 7.6 S 9.2 0.0 0.0
16:19 17.0 8.2 56 1022.8 4.5 SW 9.2 0.0 0.0
16:20 17.0 7.9 55 1022.7 6.0 WSW 9.2 0.0 0.0
16:21 17.0 7.6 54 1022.6 3.1 NW 9.2 0.0 0.0
16:22 17.0 7.6 54 1022.6 3.1 NW 9.2 0.0 0.0
16:23 17.0 7.6 54 1022.7 4.5 NW 9.2 0.0 0.0
16:24 17.0 7.6 54 1022.7 6.0 S 9.2 0.0 0.0
16:25 17.0 7.6 54 1022.8 6.9 NW 9.2 0.0 0.0
16:26 17.0 7.6 54 1022.7 4.5 SW 7.6 0.0 0.0
16:27 17.0 7.6 54 1022.6 3.8 NW 7.6 0.0 0.0
16:28 17.0 7.9 55 1022.6 5.4 SW 7.6 0.0 0.0
16:29 16.9 7.5 54 1022.7 4.5 W 7.6 0.0 0.0
16:30 16.9 7.5 54 1022.8 3.8 S 7.6 0.0 0.0
16:31 16.8 7.4 54 1022.7 3.8 W 6.9 0.0 0.0
16:32 16.8 7.4 54 1022.9 7.6 N 7.6 0.0 0.0
16:33 16.8 7.4 54 1022.8 3.8 E 7.6 0.0 0.0
16:34 16.8 7.2 53 1022.7 6.9 W 7.6 0.0 0.0
16:35 16.7 7.4 54 1022.7 5.4 ENE 7.6 0.0 0.0
16:36 16.7 7.4 54 1022.8 7.6 E 7.6 0.0 0.0
16:37 16.7 7.1 53 1022.7 7.6 E 7.6 0.0 0.0
16:38 16.7 7.1 53 1022.8 9.2 ENE 9.2 0.0 0.0
16:39 16.6 7.0 53 1022.7 7.6 SSW 9.2 0.0 0.0
16:40 16.7 7.1 53 1022.8 7.6 E 9.2 0.0 0.0
16:41 16.7 7.1 53 1022.8 8.3 N 9.2 0.0 0.0
16:42 16.7 7.1 53 1022.7 3.8 N 9.2 0.0 0.0
16:43 16.7 7.4 54 1022.9 4.5 W 9.2 0.0 0.0
16:44 16.9 7.5 54 1022.8 3.8 N 9.2 0.0 0.0
16:45 16.9 7.5 54 1022.8 3.8 SW 9.2 0.0 0.0
16:46 16.9 7.5 54 1022.7 7.6 NW 9.2 0.0 0.0
16:47 17.0 7.4 53 1022.8 3.8 NE 9.2 0.0 0.0
16:48 17.0 7.4 53 1022.7 9.2 NE 9.2 0.0 0.0
16:49 16.9 7.3 53 1022.7 5.4 N 11.4 0.0 0.0
16:50 16.9 7.3 53 1022.8 6.0 E 11.4 0.0 0.0
16:51 16.9 7.5 54 1022.6 4.5 N 11.4 0.0 0.0
16:52 17.0 7.9 55 1022.6 2.2 W 11.4 0.0 0.0
16:53 17.1 7.7 54 1022.7 3.8 N 11.4 0.0 0.0
16:54 17.1 7.7 54 1022.6 9.2 E 11.4 0.0 0.0
16:55 17.1 7.5 53 1022.7 9.8 S 11.4 0.0 0.0
16:56 17.1 7.2 52 1022.6 9.8 NE 11.4 0.0 0.0
16:57 17.1 7.2 52 1022.8 6.9 E 11.4 0.0 0.0
16:58 17.1 7.2 52 1022.8 6.9 E 11.4 0.0 0.0
16:59 17.2 7.5 53 1022.7 5.4 NE 11.4 0.0 0.0
17:00 17.2 7.0 51 1022.7 9.8 NE 9.8 0.0 0.0
17:01 17.1 6.9 51 1022.7 10.7 NW 10.7 0.0 0.0
17:02 17.1 6.6 50 1022.7 8.3 NE 10.7 0.0 0.0
17:03 17.0 6.5 50 1022.6 6.0 NE 10.7 0.0 0.0
17:04 17.0 6.5 50 1022.8 7.6 N 10.7 0.0 0.0
17:05 16.9 6.7 51 1022.7 5.4 NE 10.7 0.0 0.0
17:06 16.9 6.7 51 1022.7 6.9 S 10.7 0.0 0.0
17:07 16.8 6.3 50 1022.7 9.2 WNW 10.7 0.0 0.0
17:08 16.7 6.2 50 1022.6 8.3 W 10.7 0.0 0.0
17:09 16.6 6.1 50 1022.8 10.7 ENE 10.7 0.0 0.0
17:11 16.4 6.5 52 1022.5 3.1 NW 10.7 0.0 0.0
17:12 16.4 6.5 52 1022.6 3.8 WNW 10.7 0.0 0.0
17:13 16.3 6.7 53 1022.6 9.2 NE 10.7 0.0 0.0
17:14 16.3 6.7 53 1022.5 3.8 ENE 10.7 0.0 0.0
17:15 16.2 6.9 54 1022.5 2.2 E 10.7 0.0 0.0
17:16 16.2 7.2 55 1022.6 1.6 N 10.7 0.0 0.0
17:17 16.2 6.9 54 1022.6 4.5 S 10.7 0.0 0.0
17:18 16.3 7.0 54 1022.5 7.6 NE 10.7 0.0 0.0
17:19 16.2 6.9 54 1022.5 6.0 NE 10.7 0.0 0.0
17:20 16.3 7.0 54 1022.5 7.6 E 10.7 0.0 0.0
17:21 16.2 6.6 53 1022.5 7.6 N 9.2 0.0 0.0
17:22 16.2 6.6 53 1022.5 3.1 NW 9.2 0.0 0.0
17:23 16.1 6.5 53 1022.5 3.8 W 9.2 0.0 0.0
17:24 16.1 6.5 53 1022.4 3.8 NE 7.6 0.0 0.0
17:25 16.1 6.5 53 1022.4 6.9 NE 7.6 0.0 0.0
17:26 16.0 6.7 54 1022.5 5.4 NW 7.6 0.0 0.0
17:27 16.0 6.7 54 1022.5 5.4 S 7.6 0.0 0.0
17:28 16.0 6.7 54 1022.6 6.9 S 7.6 0.0 0.0
17:29 16.1 6.8 54 1022.5 3.8 NW 7.6 0.0 0.0
17:30 16.1 6.8 54 1022.6 3.1 NW 7.6 0.0 0.0
17:31 16.2 6.9 54 1022.4 6.0 NE 6.9 0.0 0.0
17:32 16.2 6.6 53 1022.4 3.8 N 6.9 0.0 0.0
17:33 16.2 6.6 53 1022.5 5.4 NE 6.9 0.0 0.0
17:34 16.2 6.6 53 1022.5 3.8 N 6.9 0.0 0.0
17:35 16.2 6.9 54 1022.5 3.8 NE 6.9 0.0 0.0
17:36 16.3 7.0 54 1022.4 6.0 N 6.9 0.0 0.0
17:37 16.4 6.8 53 1022.5 6.9 N 6.9 0.0 0.0
17:38 16.4 6.5 52 1022.6 6.9 NW 6.9 0.0 0.0
17:39 16.4 6.5 52 1022.6 10.7 NE 10.7 0.0 0.0
17:40 16.4 6.2 51 1022.4 10.7 NE 10.7 0.0 0.0
17:41 16.4 6.2 51 1022.5 5.4 SE 10.7 0.0 0.0
17:42 16.4 6.2 51 1022.5 5.4 SE 10.7 0.0 0.0
17:43 16.4 6.0 50 1022.6 6.0 N 10.7 0.0 0.0
17:44 16.4 6.0 50 1022.5 6.9 NE 10.7 0.0 0.0
17:45 16.4 6.0 50 1022.6 3.8 NW 10.7 0.0 0.0
17:46 16.4 5.7 49 1022.4 7.6 WNW 10.7 0.0 0.0
17:47 16.4 5.4 48 1022.5 6.0 WNW 10.7 0.0 0.0
17:48 16.3 5.6 49 1022.5 4.5 NE 10.7 0.0 0.0
17:49 16.3 5.6 49 1022.5 5.4 NE 10.7 0.0 0.0
17:50 16.3 5.9 50 1022.5 4.5 N 10.7 0.0 0.0
17:52 16.2 5.5 49 1022.4 7.6 SW 7.6 0.0 0.0
17:53 16.2 5.2 48 1022.5 9.8 ENE 9.8 0.0 0.0
17:54 16.1 5.1 48 1022.5 9.2 NNE 9.8 0.0 0.0
17:55 16.1 5.1 48 1022.4 6.9 SW 9.8 0.0 0.0
17:56 16.0 5.0 48 1022.4 7.6 NE 9.8 0.0 0.0
17:57 15.9 5.2 49 1022.5 3.8 NW 9.8 0.0 0.0
17:58 15.9 5.2 49 1022.4 5.4 N 9.8 0.0 0.0
17:59 15.9 4.9 48 1022.3 11.4 SW 11.4 0.0 0.0
18:00 15.9 4.9 48 1022.4 10.7 NW 11.4 0.0 0.0
18:01 15.8 4.8 48 1022.3 6.0 N 11.4 0.0 0.0
18:02 15.8 4.8 48 1022.4 4.5 E 11.4 0.0 0.0
18:03 15.6 4.6 48 1022.3 5.4 NW 11.4 0.0 0.0
18:04 15.7 4.7 48 1022.3 4.5 N 11.4 0.0 0.0
18:05 15.7 5.0 49 1022.3 8.3 NW 11.4 0.0 0.0
18:06 15.6 4.9 49 1022.5 6.0 N 11.4 0.0 0.0
18:07 15.6 4.6 48 1022.6 8.3 NW 11.4 0.0 0.0
18:08 15.5 4.8 49 1022.5 11.4 NE 11.4 0.0 0.0
18:09 15.5 4.5 48 1022.5 9.8 NE 11.4 0.0 0.0
18:10 15.4 4.5 48 1022.5 9.2 NE 11.4 0.0 0.0
18:11 15.4 4.5 48 1022.3 9.2 NE 11.4 0.0 0.0
18:12 15.4 4.7 49 1022.5 6.9 NE 11.4 0.0 0.0
18:13 15.4 5.0 50 1022.3 7.6 N 11.4 0.0 0.0
18:14 15.4 5.0 50 1022.4 5.4 N 11.4 0.0 0.0
18:15 15.4 5.0 50 1022.3 8.3 NE 11.4 0.0 0.0
18:16 15.4 5.0 50 1022.3 3.8 NE 11.4 0.0 0.0
18:17 15.4 5.0 50 1022.3 6.9 NE 11.4 0.0 0.0
18:18 15.4 5.0 50 1022.3 9.2 NE 9.8 0.0 0.0
18:19 15.4 5.0 50 1022.2 7.6 N 9.2 0.0 0.0
18:20 15.4 5.0 50 1022.3 6.9 ENE 9.2 0.0 0.0
18:21 15.4 5.3 51 1022.2 5.4 N 9.2 0.0 0.0
18:22 15.4 5.3 51 1022.3 8.3 NE 9.2 0.0 0.0
18:23 15.4 5.3 51 1022.2 7.6 N 9.2 0.0 0.0
18:24 15.4 5.0 50 1022.4 9.2 SW 9.8 0.0 0.0
18:25 15.4 4.7 49 1022.2 13.0 SW 13.0 0.0 0.0
18:26 15.3 4.7 49 1022.0 3.8 W 13.0 0.0 0.0
18:27 15.3 4.9 50 1022.1 6.0 NE 13.0 0.0 0.0
18:28 15.4 5.3 51 1022.1 6.9 NW 13.0 0.0 0.0
18:29 15.4 5.0 50 1022.2 9.2 N 13.0 0.0 0.0
18:30 15.4 5.0 50 1022.2 7.6 N 13.0 0.0 0.0
18:32 15.4 5.0 50 1022.1 5.4 ENE 13.0 0.0 0.0
18:33 15.5 5.1 50 1022.0 6.0 NE 13.0 0.0 0.0
18:34 15.4 5.0 50 1022.1 13.0 E 13.0 0.0 0.0
18:36 15.5 5.1 50 1022.1 11.4 N 13.0 0.0 0.0
18:37 15.5 5.1 50 1022.1 11.4 ENE 13.0 0.0 0.0
18:38 15.4 5.0 50 1021.9 8.3 N 13.0 0.0 0.0
18:39 15.4 4.7 49 1022.0 7.6 NW 13.0 0.0 0.0
18:40 15.3 4.7 49 1022.0 7.6 S 13.0 0.0 0.0
18:42 15.2 4.6 49 1022.1 6.0 WNW 13.0 0.0 0.0
18:43 15.2 4.6 49 1022.1 6.9 N 13.0 0.0 0.0
18:44 15.1 4.5 49 1022.1 8.3 NE 13.0 0.0 0.0
18:45 15.0 4.4 49 1022.0 9.2 NE 11.4 0.0 0.0
18:46 15.0 4.4 49 1022.1 4.5 N 11.4 0.0 0.0
18:47 14.9 4.3 49 1022.0 6.0 NW 11.4 0.0 0.0
18:48 14.7 4.1 49 1022.0 9.2 NW 11.4 0.0 0.0
18:49 14.7 4.1 49 1022.1 7.6 N 11.4 0.0 0.0
18:50 14.7 4.1 49 1022.1 7.6 N 11.4 0.0 0.0
18:51 14.6 4.0 49 1022.0 3.8 SE 11.4 0.0 0.0
18:52 14.5 3.9 49 1022.0 9.2 NW 9.2 0.0 0.0
18:53 14.4 3.8 49 1022.0 6.0 N 9.2 0.0 0.0
18:54 14.4 3.8 49 1022.2 3.1 NW 9.2 0.0 0.0
18:55 14.3 4.0 50 1022.0 3.8 N 9.2 0.0 0.0
18:56 14.2 3.9 50 1022.1 5.4 ENE 9.2 0.0 0.0
18:57 14.2 3.9 50 1022.1 6.0 WNW 9.2 0.0 0.0
18:58 14.1 3.8 50 1022.0 3.8 WNW 9.2 0.0 0.0
19:00 13.9 3.9 51 1022.0 4.5 N 9.2 0.0 0.0
19:01 13.9 3.9 51 1022.1 6.0 WNW 9.2 0.0 0.0
19:02 13.9 3.9 51 1022.0 5.4 E 6.9 0.0 0.0
19:03 13.8 3.8 51 1022.0 4.5 NNW 6.9 0.0 0.0
19:04 13.8 4.1 52 1022.0 7.6 NW 7.6 0.0 0.0
19:05 13.7 4.0 52 1022.0 6.9 NE 7.6 0.0 0.0
19:06 13.7 4.0 52 1022.0 9.8 NE 9.8 0.0 0.0
19:07 13.6 3.9 52 1021.9 4.5 NE 9.8 0.0 0.0
19:08 13.6 3.9 52 1021.8 7.6 N 9.8 0.0 0.0
19:09 13.6 3.9 52 1021.8 7.6 N 9.8 0.0 0.0
19:10 13.5 3.8 52 1021.9 7.6 WNW 9.8 0.0 0.0
19:11 13.5 3.8 52 1021.9 7.6 WNW 9.8 0.0 0.0
19:12 13.5 4.1 53 1021.8 8.3 N 9.8 0.0 0.0
19:13 13.4 4.0 53 1021.9 6.0 N 9.8 0.0 0.0
19:14 13.4 4.0 53 1021.7 7.6 SW 9.8 0.0 0.0
19:15 13.4 4.0 53 1021.7 4.5 N 9.8 0.0 0.0
19:16 13.4 4.0 53 1021.7 7.6 NE 9.8 0.0 0.0
19:17 13.3 3.9 53 1021.8 3.1 NE 8.3 0.0 0.0
19:18 13.3 4.2 54 1021.7 7.6 N 8.3 0.0 0.0
19:19 13.3 4.2 54 1021.7 8.3 NE 8.3 0.0 0.0
19:20 13.3 4.2 54 1021.9 3.8 NE 8.3 0.0 0.0
19:22 13.3 4.2 54 1021.8 8.3 NE 8.3 0.0 0.0
19:23 13.2 4.1 54 1021.8 6.9 NE 8.3 0.0 0.0
19:24 13.2 4.1 54 1021.8 3.8 E 8.3 0.0 0.0
19:25 13.2 4.1 54 1021.8 7.6 E 8.3 0.0 0.0
19:26 13.2 4.1 54 1021.8 7.6 NE 8.3 0.0 0.0
19:27 13.1 4.0 54 1021.8 4.5 NE 8.3 0.0 0.0
19:28 13.1 4.0 54 1021.9 7.6 NE 8.3 0.0 0.0
19:29 13.1 4.0 54 1021.9 4.5 W 8.3 0.0 0.0
19:30 13.1 4.0 54 1021.9 4.5 W 8.3 0.0 0.0
19:31 13.1 4.0 54 1021.8 5.4 N 8.3 0.0 0.0
19:32 13.1 4.0 54 1021.7 5.4 NE 8.3 0.0 0.0
19:33 13.1 4.0 54 1021.7 5.4 NE 7.6 0.0 0.0
19:34 13.0 3.9 54 1021.7 7.6 NE 7.6 0.0 0.0
19:35 13.0 3.9 54 1021.7 6.9 NE 7.6 0.0 0.0
19:36 13.0 4.2 55 1022.0 8.3 N 8.3 0.0 0.0
19:37 13.0 4.2 55 1021.8 12.1 SW 12.1 0.0 0.0
19:38 13.0 4.2 55 1021.8 8.3 NW 12.1 0.0 0.0
19:41 12.9 4.1 55 1021.8 3.8 NW 12.1 0.0 0.0
19:42 12.9 4.1 55 1021.9 6.9 WNW 12.1 0.0 0.0
19:43 12.9 4.1 55 1021.7 5.4 NE 12.1 0.0 0.0
19:44 12.9 4.1 55 1021.9 6.0 NE 12.1 0.0 0.0
19:45 12.8 4.0 55 1021.8 4.5 NE 12.1 0.0 0.0
19:46 12.8 4.0 55 1021.9 3.1 NE 12.1 0.0 0.0
19:47 12.8 4.0 55 1021.8 5.4 NW 12.1 0.0 0.0
19:48 12.8 4.0 55 1021.9 4.5 E 9.8 0.0 0.0
19:49 12.8 4.0 55 1021.7 6.9 NE 9.2 0.0 0.0
19:50 12.8 4.0 55 1021.8 6.9 N 9.2 0.0 0.0
19:51 12.7 3.9 55 1021.6 5.4 NE 6.9 0.0 0.0
19:52 12.7 3.9 55 1021.6 4.5 NE 8.3 0.0 0.0
19:53 12.7 3.9 55 1021.7 4.5 NNE 8.3 0.0 0.0
19:54 12.7 3.9 55 1021.7 7.6 NE 8.3 0.0 0.0
19:55 12.7 3.9 55 1021.6 4.5 NE 8.3 0.0 0.0
19:56 12.6 3.8 55 1021.5 9.8 SE 9.8 0.0 0.0
19:57 12.6 3.8 55 1021.7 6.0 S 9.8 0.0 0.0
19:59 12.5 3.7 55 1021.6 5.4 E 9.8 0.0 0.0
20:00 12.5 4.0 56 1021.7 5.4 N 9.8 0.0 0.0
20:01 12.5 4.0 56 1021.6 5.4 NE 9.8 0.0 0.0
20:02 12.5 4.0 56 1021.7 6.0 N 9.8 0.0 0.0
20:03 12.4 3.6 55 1021.6 6.9 NE 9.8 0.0 0.0
20:04 12.4 3.9 56 1021.7 6.0 E 9.8 0.0 0.0
20:05 12.4 3.6 55 1021.6 6.9 WNW 9.8 0.0 0.0
20:06 12.4 3.6 55 1021.6 6.9 WNW 9.8 0.0 0.0
20:07 12.3 3.5 55 1021.6 6.9 NE 8.3 0.0 0.0
20:08 12.3 3.5 55 1021.6 7.6 NE 8.3 0.0 0.0
20:09 12.3 3.5 55 1021.5 5.4 ENE 7.6 0.0 0.0
20:10 12.3 3.5 55 1021.6 5.4 NW 7.6 0.0 0.0
20:11 12.2 3.7 56 1021.6 6.0 WNW 7.6 0.0 0.0
20:12 12.2 3.4 55 1021.6 5.4 SW 7.6 0.0 0.0
20:13 12.2 3.4 55 1021.5 3.8 NW 7.6 0.0 0.0
20:15 12.1 3.3 55 1021.5 6.9 NE 7.6 0.0 0.0
20:16 12.1 3.3 55 1021.5 5.4 NE 7.6 0.0 0.0
20:17 12.1 3.6 56 1021.5 5.4 NE 7.6 0.0 0.0
20:18 12.0 3.2 55 1021.6 6.0 S 6.9 0.0 0.0
20:19 12.0 3.5 56 1021.5 4.5 NW 6.9 0.0 0.0
20:20 12.0 3.2 55 1021.5 6.9 E 6.9 0.0 0.0
20:21 12.0 3.2 55 1021.4 4.5 SE 6.9 0.0 0.0
20:22 12.0 3.2 55 1021.4 4.5 SE 6.9 0.0 0.0
20:23 12.0 3.5 56 1021.5 5.4 NE 6.9 0.0 0.0
20:24 12.0 3.5 56 1021.5 6.9 NE 6.9 0.0 0.0
20:25 12.0 3.5 56 1021.4 9.8 NE 9.8 0.0 0.0
20:26 12.0 3.5 56 1021.5 6.9 NE 9.8 0.0 0.0
20:27 11.9 3.4 56 1021.5 6.9 N 9.8 0.0 0.0
20:28 11.9 3.4 56 1021.5 6.9 NE 9.8 0.0 0.0
20:29 11.9 3.4 56 1021.5 6.0 N 9.8 0.0 0.0
20:30 11.9 3.4 56 1021.4 5.4 NE 9.8 0.0 0.0
20:31 11.9 3.4 56 1021.5 6.0 N 9.8 0.0 0.0
20:33 11.8 3.3 56 1021.5 13.0 NE 13.0 0.0 0.0
20:34 11.8 3.3 56 1021.4 9.8 N 13.0 0.0 0.0
20:35 11.8 3.3 56 1021.5 5.4 N 13.0 0.0 0.0
20:36 11.8 3.3 56 1021.3 6.0 NE 13.0 0.0 0.0
20:37 11.7 3.2 56 1021.3 6.0 NE 13.0 0.0 0.0
20:38 11.7 3.2 56 1021.3 6.9 NE 13.0 0.0 0.0
20:39 11.7 3.2 56 1021.5 5.4 NE 13.0 0.0 0.0
20:40 11.7 3.2 56 1021.3 4.5 E 13.0 0.0 0.0
20:41 11.7 3.2 56 1021.3 9.2 NE 13.0 0.0 0.0
20:42 11.7 3.2 56 1021.4 9.8 W 13.0 0.0 0.0
20:43 11.6 3.1 56 1021.4 9.2 NW 13.0 0.0 0.0
20:44 11.6 3.1 56 1021.2 4.5 NE 9.8 0.0 0.0
20:45 11.6 3.1 56 1021.5 9.8 W 9.8 0.0 0.0
20:46 11.6 3.1 56 1021.4 10.7 SSE 10.7 0.0 0.0
20:47 11.6 3.1 56 1021.3 4.5 N 10.7 0.0 0.0
20:48 11.6 3.1 56 1021.3 6.0 NE 10.7 0.0 0.0
20:49 11.6 3.1 56 1021.4 6.0 NE 10.7 0.0 0.0
20:51 11.5 3.0 56 1021.4 3.1 N 10.7 0.0 0.0
20:52 11.5 3.0 56 1021.4 8.3 NE 10.7 0.0 0.0
20:53 11.5 3.0 56 1021.4 6.9 NW 10.7 0.0 0.0
20:54 11.4 2.9 56 1021.5 5.4 NW 10.7 0.0 0.0
20:55 11.4 2.9 56 1021.4 9.2 S 10.7 0.0 0.0
20:56 11.4 2.9 56 1021.4 6.9 W 9.8 0.0 0.0
20:57 11.4 2.9 56 1021.6 6.0 NE 9.2 0.0 0.0
20:58 11.4 2.9 56 1021.5 4.5 E 9.2 0.0 0.0
20:59 11.4 3.2 57 1021.5 4.5 E 9.2 0.0 0.0
21:00 11.4 2.9 56 1021.4 6.0 NE 9.2 0.0 0.0
21:01 11.4 2.9 56 1021.4 7.6 NE 9.2 0.0 0.0
21:02 11.3 2.8 56 1021.5 7.6 N 9.2 0.0 0.0
21:03 11.3 3.1 57 1021.5 9.2 N 9.2 0.0 0.0
21:04 11.3 3.1 57 1021.5 9.8 NW 9.8 0.0 0.0
21:05 11.3 3.1 57 1021.3 6.0 SW 9.8 0.0 0.0
21:06 11.3 2.8 56 1021.4 4.5 NE 9.8 0.0 0.0
21:07 11.3 3.1 57 1021.3 6.9 N 9.8 0.0 0.0
21:08 11.3 2.8 56 1021.4 4.5 NW 9.8 0.0 0.0
21:09 11.2 2.7 56 1021.4 5.4 S 9.8 0.0 0.0
21:10 11.2 2.7 56 1021.4 5.4 S 9.8 0.0 0.0
21:11 11.2 2.7 56 1021.3 4.5 S 9.8 0.0 0.0
21:13 11.2 2.7 56 1021.4 6.9 N 9.8 0.0 0.0
21:14 11.2 2.7 56 1021.3 7.6 NW 7.6 0.0 0.0
21:15 11.2 2.7 56 1021.3 3.8 NW 7.6 0.0 0.0
21:16 11.1 2.7 56 1021.3 6.9 SE 7.6 0.0 0.0
21:17 11.1 2.7 56 1021.4 6.0 SW 7.6 0.0 0.0
21:18 11.1 2.7 56 1021.4 6.0 W 7.6 0.0 0.0
21:19 11.1 2.7 56 1021.2 6.0 NW 7.6 0.0 0.0
21:20 11.1 2.7 56 1021.2 7.6 NE 7.6 0.0 0.0
21:21 11.1 2.7 56 1021.4 3.8 SW 7.6 0.0 0.0
21:22 11.1 2.7 56 1021.2 3.1 NW 7.6 0.0 0.0
21:23 11.0 2.6 56 1021.4 9.2 NE 9.2 0.0 0.0
21:24 11.1 2.7 56 1021.4 6.0 NE 9.2 0.0 0.0
21:25 11.0 2.6 56 1021.2 7.6 NE 9.2 0.0 0.0
21:26 11.0 2.6 56 1021.2 6.9 S 9.2 0.0 0.0
21:27 11.0 2.6 56 1021.3 6.9 NW 9.2 0.0 0.0
21:28 11.0 2.6 56 1021.4 4.5 W 9.2 0.0 0.0
21:29 11.0 2.6 56 1021.3 6.9 NW 9.2 0.0 0.0
21:31 11.0 2.8 57 1021.4 4.5 NW 9.2 0.0 0.0
21:32 11.0 2.6 56 1021.3 8.3 SE 9.2 0.0 0.0
21:33 11.0 2.8 57 1021.3 6.0 N 8.3 0.0 0.0
21:34 10.9 2.7 57 1021.2 4.5 S 8.3 0.0 0.0
21:35 10.9 2.7 57 1021.4 5.4 E 8.3 0.0 0.0
21:36 10.9 2.7 57 1021.3 5.4 NE 8.3 0.0 0.0
21:37 10.9 2.7 57 1021.3 5.4 NW 8.3 0.0 0.0
21:38 10.9 2.7 57 1021.3 6.0 NE 8.3 0.0 0.0
21:39 10.9 2.7 57 1021.2 4.5 NE 8.3 0.0 0.0
21:40 10.9 2.7 57 1021.3 6.0 E 8.3 0.0 0.0
21:41 10.9 2.7 57 1021.3 7.6 NE 8.3 0.0 0.0
21:42 10.9 2.7 57 1021.1 8.3 NE 8.3 0.0 0.0
21:43 10.9 2.7 57 1021.2 6.0 NE 8.3 0.0 0.0
21:44 10.8 2.6 57 1021.1 6.9 W 8.3 0.0 0.0
21:45 10.9 2.7 57 1021.1 3.8 NE 8.3 0.0 0.0
21:46 10.8 2.6 57 1021.2 4.5 NW 8.3 0.0 0.0
21:48 10.8 2.6 57 1021.2 5.4 N 8.3 0.0 0.0
21:49 10.8 2.9 58 1021.5 7.6 NE 8.3 0.0 0.0
21:50 10.8 2.9 58 1021.2 8.3 NE 8.3 0.0 0.0
21:51 10.8 2.9 58 1021.1 5.4 NE 8.3 0.0 0.0
21:52 10.8 2.9 58 1021.3 3.8 N 8.3 0.0 0.0
21:53 10.8 2.9 58 1021.3 6.9 N 8.3 0.0 0.0
21:54 10.8 2.9 58 1021.3 6.9 N 8.3 0.0 0.0
21:55 10.8 2.9 58 1021.2 7.6 N 8.3 0.0 0.0
21:56 10.7 2.8 58 1021.3 4.5 NE 8.3 0.0 0.0
21:57 10.8 2.9 58 1021.1 4.5 NE 8.3 0.0 0.0
21:58 10.7 2.8 58 1021.2 7.6 NE 8.3 0.0 0.0
21:59 10.7 2.8 58 1021.3 5.4 NE 8.3 0.0 0.0
22:00 10.7 3.0 59 1021.4 6.0 NE 8.3 0.0 0.0
22:01 10.7 2.8 58 1021.3 5.4 NW 7.6 0.0 0.0
22:02 10.7 3.0 59 1021.4 3.1 NW 7.6 0.0 0.0
22:03 10.7 3.0 59 1021.2 4.5 SW 7.6 0.0 0.0
22:04 10.7 3.0 59 1021.2 6.9 SE 7.6 0.0 0.0
22:05 10.6 2.9 59 1021.2 4.5 S 7.6 0.0 0.0
22:07 10.7 3.0 59 1021.2 8.3 N 8.3 0.0 0.0
22:08 10.6 2.9 59 1021.2 4.5 NE 8.3 0.0 0.0
22:09 10.6 2.9 59 1021.3 5.4 NW 8.3 0.0 0.0
22:10 10.6 2.9 59 1021.1 5.4 NW 8.3 0.0 0.0
22:11 10.6 2.9 59 1021.1 5.4 NW 8.3 0.0 0.0
22:12 10.6 2.9 59 1021.0 5.4 NW 8.3 0.0 0.0
22:13 10.6 2.9 59 1021.0 5.4 NW 8.3 0.0 0.0
22:14 10.6 2.9 59 1021.1 5.4 NW 8.3 0.0 0.0
22:15 10.6 2.9 59 1021.0 5.4 NW 8.3 0.0 0.0
22:16 10.6 2.9 59 1021.0 4.5 NE 8.3 0.0 0.0
22:17 10.6 2.9 59 1021.1 6.9 NW 8.3 0.0 0.0
22:18 10.6 2.9 59 1021.0 3.8 ENE 6.9 0.0 0.0
22:19 10.6 3.2 60 1021.1 5.4 SW 6.9 0.0 0.0
22:20 10.6 3.2 60 1021.1 5.4 N 7.6 0.0 0.0
22:21 10.6 3.2 60 1021.1 3.8 SW 7.6 0.0 0.0
22:22 10.6 3.2 60 1021.0 5.4 NE 7.6 0.0 0.0
22:23 10.5 3.1 60 1021.0 6.0 N 7.6 0.0 0.0
22:24 10.5 3.1 60 1021.0 6.0 N 8.3 0.0 0.0
22:25 10.5 3.1 60 1021.0 6.0 W 8.3 0.0 0.0
22:27 10.5 3.1 60 1021.0 3.1 N 8.3 0.0 0.0
22:28 10.5 3.1 60 1021.0 5.4 NE 8.3 0.0 0.0
22:29 10.5 3.1 60 1021.0 3.1 N 8.3 0.0 0.0
22:30 10.5 3.1 60 1021.0 3.8 N 8.3 0.0 0.0
22:31 10.5 3.3 61 1021.0 6.9 E 8.3 0.0 0.0
22:32 10.5 3.3 61 1021.1 5.4 NNE 8.3 0.0 0.0
22:33 10.5 3.3 61 1021.1 5.4 NNE 8.3 0.0 0.0
22:34 10.5 3.3 61 1021.0 2.2 NW 8.3 0.0 0.0
22:35 10.4 3.2 61 1021.0 5.4 NE 6.9 0.0 0.0
22:36 10.4 3.2 61 1021.0 3.8 N 6.9 0.0 0.0
22:37 10.4 3.2 61 1020.9 6.0 N 6.9 0.0 0.0
22:38 10.4 3.2 61 1021.0 4.5 N 6.9 0.0 0.0
22:39 10.4 3.2 61 1020.7 6.9 N 6.9 0.0 0.0
22:40 10.4 3.2 61 1020.8 6.0 NE 6.9 0.0 0.0
22:41 10.4 3.2 61 1020.9 4.5 NE 6.9 0.0 0.0
22:42 10.4 3.2 61 1020.7 6.0 N 6.9 0.0 0.0
22:43 10.4 3.2 61 1020.8 5.4 N 6.9 0.0 0.0
22:44 10.3 3.3 62 1020.8 6.9 NW 6.9 0.0 0.0
22:46 10.3 3.3 62 1020.7 4.5 N 6.9 0.0 0.0
22:47 10.3 3.3 62 1020.6 3.8 NE 6.9 0.0 0.0
22:48 10.3 3.3 62 1020.7 6.9 N 6.9 0.0 0.0
22:49 10.3 3.3 62 1020.7 5.4 NE 6.9 0.0 0.0
22:50 10.3 3.3 62 1020.7 4.5 NE 6.9 0.0 0.0
22:51 10.3 3.3 62 1020.7 7.6 NW 7.6 0.0 0.0
22:52 10.3 3.3 62 1020.6 5.4 N 7.6 0.0 0.0
22:53 10.3 3.3 62 1020.6 5.4 N 7.6 0.0 0.0
22:54 10.3 3.3 62 1020.7 4.5 SE 7.6 0.0 0.0
22:55 10.3 3.3 62 1020.7 9.2 E 9.2 0.0 0.0
22:56 10.3 3.3 62 1020.8 3.1 NW 9.2 0.0 0.0
22:57 10.2 3.2 62 1020.7 2.2 NE 9.2 0.0 0.0
22:58 10.2 3.2 62 1020.8 4.5 N 9.2 0.0 0.0
22:59 10.2 3.2 62 1020.7 4.5 N 9.2 0.0 0.0
23:00 10.2 3.2 62 1020.7 4.5 N 9.2 0.0 0.0
23:01 10.2 3.2 62 1020.7 6.0 SE 9.2 0.0 0.0
23:02 10.2 3.2 62 1020.8 3.1 SW 9.2 0.0 0.0
23:03 10.2 3.2 62 1020.7 3.8 NW 9.2 0.0 0.0
23:04 10.2 3.5 63 1020.8 5.4 NE 9.2 0.0 0.0
23:05 10.2 3.5 63 1020.8 4.5 SW 6.0 0.0 0.0
23:07 10.2 3.5 63 1020.6 1.6 NW 6.0 0.0 0.0
23:08 10.1 3.4 63 1020.6 3.8 NW 6.0 0.0 0.0
23:09 10.2 3.5 63 1020.7 4.5 S 6.0 0.0 0.0
23:10 10.2 3.5 63 1020.7 4.5 S 6.0 0.0 0.0
23:11 10.2 3.5 63 1020.8 4.5 S 5.4 0.0 0.0
23:12 10.2 3.5 63 1020.7 4.5 S 5.4 0.0 0.0
23:13 10.2 3.5 63 1020.8 4.5 S 5.4 0.0 0.0
23:14 10.2 3.5 63 1020.7 4.5 S 5.4 0.0 0.0
23:15 10.1 3.4 63 1020.7 6.0 NW 6.0 0.0 0.0
23:16 10.1 3.4 63 1020.7 5.4 NE 6.0 0.0 0.0
23:17 10.1 3.4 63 1020.6 7.6 NE 7.6 0.0 0.0
23:18 10.1 3.6 64 1020.5 6.9 NE 7.6 0.0 0.0
23:19 10.1 3.6 64 1020.6 3.8 N 7.6 0.0 0.0
23:20 10.1 3.6 64 1020.6 3.8 W 7.6 0.0 0.0
23:21 10.1 3.6 64 1020.6 3.1 W 7.6 0.0 0.0
23:22 10.1 3.6 64 1020.7 4.5 N 7.6 0.0 0.0
23:23 10.1 3.6 64 1020.6 6.9 E 7.6 0.0 0.0
23:24 10.1 3.6 64 1020.5 6.0 N 7.6 0.0 0.0
23:25 10.1 3.6 64 1020.5 5.4 N 7.6 0.0 0.0
23:26 10.1 3.6 64 1020.5 4.5 NW 7.6 0.0 0.0
23:27 10.1 3.6 64 1020.6 3.8 SW 7.6 0.0 0.0
23:28 10.1 3.6 64 1020.5 3.1 N 6.9 0.0 0.0
23:29 10.1 3.6 64 1020.5 3.8 N 6.9 0.0 0.0
23:30 10.1 3.6 64 1020.6 4.5 W 6.9 0.0 0.0
23:31 10.1 3.6 64 1020.6 4.5 NE 6.9 0.0 0.0
23:32 10.1 3.6 64 1020.5 8.3 NW 8.3 0.0 0.0
23:34 10.1 3.8 65 1020.5 4.5 NE 8.3 0.0 0.0
23:35 10.1 3.8 65 1020.4 5.4 NW 8.3 0.0 0.0
23:36 10.1 3.8 65 1020.4 7.6 E 8.3 0.0 0.0
23:37 10.1 3.8 65 1020.5 6.9 NE 8.3 0.0 0.0
23:38 10.1 3.8 65 1020.4 4.5 NW 8.3 0.0 0.0
23:39 10.1 3.8 65 1020.4 4.5 N 8.3 0.0 0.0
23:40 10.1 3.8 65 1020.4 3.8 E 8.3 0.0 0.0
23:41 10.1 3.8 65 1020.5 6.9 S 8.3 0.0 0.0
23:42 10.1 3.8 65 1020.4 5.4 N 8.3 0.0 0.0
23:43 10.1 3.8 65 1020.5 4.5 SW 7.6 0.0 0.0
23:44 10.1 3.8 65 1020.5 2.2 S 7.6 0.0 0.0
23:45 10.1 3.8 65 1020.5 5.4 NE 7.6 0.0 0.0
23:46 10.1 3.8 65 1020.4 9.2 NE 9.2 0.0 0.0
23:47 10.1 3.8 65 1020.4 8.3 S 9.2 0.0 0.0
23:48 10.1 3.8 65 1020.5 4.5 S 9.2 0.0 0.0
23:49 10.1 3.8 65 1020.4 9.2 ENE 9.2 0.0 0.0
23:50 10.1 3.8 65 1020.5 3.1 N 9.2 0.0 0.0
23:51 10.1 3.8 65 1020.3 3.8 N 9.2 0.0 0.0
23:52 10.1 4.0 66 1020.2 3.8 N 9.2 0.0 0.0
23:54 10.1 4.0 66 1020.3 6.0 W 9.2 0.0 0.0
23:55 10.2 4.1 66 1020.4 3.1 N 9.2 0.0 0.0
23:56 10.1 4.0 66 1020.2 5.4 NW 9.2 0.0 0.0
23:57 10.2 4.1 66 1020.3 6.9 SW 9.2 0.0 0.0
23:58 10.2 4.1 66 1020.3 3.8 NW 9.2 0.0 0.0
23:59 10.2 4.1 66 1020.2 6.9 NW 8.3 0.0 0.0

UK - WEATHER STATION TOPSITES - UK World Weather Websites

This is a private weather station, never base important decisions or events on data from this weather station. Although every effort has been made to make the data as accurate as possible it does not meet MetOffice standards. It is proved as a guide of local weather conditions. We accept no liability for any loss which may arise from use of the data.

Copyright © Carnkie Weather 2009 - 2019.